DW4078 Weather Reports


Display with metric or nautical units.
time (UTC)temp
F
wind
direction
speed
MPH
gust
MPH
rain 1hr
in
rain 24hr
in
rain mn
in
humidity
%
barometer
mb
20260906223702 76 83 1.0 7.0 0.00 0.00 0.00 61 1018.4
20260906223602 76 81 1.0 7.0 0.00 0.00 0.00 62 1018.6
20260906223502 76 76 2.0 7.0 0.00 0.00 0.00 61 1018.4
20260906223403 76 76 2.0 7.0 0.00 0.00 0.00 59 1018.6
20260906223323 75 75 2.0 7.0 0.00 0.00 0.00 59 1018.4
20260906223202 75 73 2.0 7.0 0.00 0.00 0.00 60 1018.4
20260906223102 74 67 2.0 7.0 0.00 0.00 0.00 60 1018.4
20260906223004 74 64 2.0 7.0 0.00 0.00 0.00 60 1018.4
20260906222902 74 72 2.0 6.0 0.00 0.00 0.00 61 1018.4
20260906222802 74 70 2.0 6.0 0.00 0.00 0.00 61 1018.5
20260906222702 73 66 2.0 7.0 0.00 0.00 0.00 64 1018.2
20260906222602 73 54 2.0 7.0 0.00 0.00 0.00 63 1018.3
20260906222504 73 58 2.0 7.0 0.00 0.00 0.00 67 1018.4
20260906222404 73 60 2.0 7.0 0.00 0.00 0.00 65 1018.2
20260906222305 73 64 2.0 7.0 0.00 0.00 0.00 67 1018.4
20260906222202 73 51 2.0 7.0 0.00 0.00 0.00 67 1018.4
20260906222104 73 50 2.0 7.0 0.00 0.00 0.00 66 1018.4
20260906222023 73 49 2.0 7.0 0.00 0.00 0.00 66 1018.4
20260906221902 73 45 2.0 7.0 0.00 0.00 0.00 67 1018.5
20260906221802 73 45 2.0 7.0 0.00 0.00 0.00 67 1018.3
20260906221724 73 41 2.0 7.0 0.00 0.00 0.00 66 1018.3
20260906221602 73 51 1.0 7.0 0.00 0.00 0.00 66 1018.2
20260906221502 73 50 1.0 7.0 0.00 0.00 0.00 67 1018.3
20260906221404 73 49 1.0 7.0 0.00 0.00 0.00 67 1018.3
20260906221302 73 46 1.0 7.0 0.00 0.00 0.00 67 1018.3
20260906221224 73 60 1.0 7.0 0.00 0.00 0.00 65 1018.4
20260906221103 73 81 1.0 4.0 0.00 0.00 0.00 66 1018.2
20260906221003 73 79 1.0 4.0 0.00 0.00 0.00 66 1018.4
20260906220904 73 85 1.0 4.0 0.00 0.00 0.00 67 1018.3
20260906220803 73 86 1.0 4.0 0.00 0.00 0.00 67 1018.4
20260906220725 73 84 1.0 4.0 0.00 0.00 0.00 67 1018.3
20260906220602 73 71 1.0 6.0 0.00 0.00 0.00 67 1018.2
20260906220502 73 65 1.0 6.0 0.00 0.00 0.00 67 1018.1
20260906220404 73 66 1.0 6.0 0.00 0.00 0.00 68 1018.3
20260906220302 73 65 1.0 6.0 0.00 0.00 0.00 67 1018.1
20260906220203 73 64 1.0 6.0 0.00 0.00 0.00 67 1018.2
20260906220124 73 54 1.0 6.0 0.00 0.00 0.00 67 1018.2
20260906220024 73 47 2.0 6.0 0.00 0.00 0.00 68 1018.3
20260906215904 73 48 2.0 6.0 0.00 0.00 0.00 67 1018.1
20260906215825 73 49 2.0 6.0 0.00 0.00 0.00 68 1018.1
20260906215704 74 53 2.0 6.0 0.00 0.00 0.00 67 1018.0
20260906215603 74 62 2.0 6.0 0.00 0.00 0.00 67 1018.3
20260906215503 74 68 2.0 6.0 0.00 0.00 0.00 67 1018.1
20260906215402 74 61 2.0 6.0 0.00 0.00 0.00 66 1018.2
20260906215306 74 55 2.0 9.0 0.00 0.00 0.00 67 1018.2
20260906215202 74 56 2.0 9.0 0.00 0.00 0.00 66 1018.2
20260906215102 75 66 2.0 9.0 0.00 0.00 0.00 65 1018.1
20260906215003 75 75 2.0 9.0 0.00 0.00 0.00 65 1018.1
20260906214903 75 68 2.0 9.0 0.00 0.00 0.00 64 1018.3
20260906214803 75 59 2.0 9.0 0.00 0.00 0.00 64 1018.2
20260906214704 75 43 2.0 9.0 0.00 0.00 0.00 65 1018.2
20260906214623 76 38 2.0 9.0 0.00 0.00 0.00 65 1018.1
20260906214502 76 36 2.0 9.0 0.00 0.00 0.00 64 1018.0
20260906214403 77 39 2.0 9.0 0.00 0.00 0.00 63 1018.0
20260906214302 77 43 2.0 9.0 0.00 0.00 0.00 62 1018.2
20260906214204 77 43 2.0 9.0 0.00 0.00 0.00 61 1018.1
20260906214102 77 45 2.0 9.0 0.00 0.00 0.00 63 1018.3
20260906214002 77 42 2.0 9.0 0.00 0.00 0.00 63 1018.1
20260906213904 77 47 2.0 9.0 0.00 0.00 0.00 62 1017.9
20260906213802 78 51 2.0 9.0 0.00 0.00 0.00 63 1018.2
20260906213702 78 68 2.0 9.0 0.00 0.00 0.00 61 1018.1
20260906213602 77 81 1.0 9.0 0.00 0.00 0.00 62 1018.2
20260906213523 77 80 1.0 9.0 0.00 0.00 0.00 64 1018.1
20260906213403 78 83 1.0 9.0 0.00 0.00 0.00 63 1017.9
20260906213303 78 78 1.0 7.0 0.00 0.00 0.00 63 1018.0
20260906213203 78 85 1.0 6.0 0.00 0.00 0.00 62 1018.0
20260906213125 78 86 1.0 6.0 0.00 0.00 0.00 62 1018.0
20260906213003 78 76 1.0 7.0 0.00 0.00 0.00 63 1018.2
20260906212902 78 78 1.0 7.0 0.00 0.00 0.00 63 1018.2
20260906212803 78 81 1.0 7.0 0.00 0.00 0.00 61 1018.1
20260906212702 78 81 1.0 7.0 0.00 0.00 0.00 62 1018.0
20260906212603 78 83 1.0 7.0 0.00 0.00 0.00 63 1018.1
20260906212502 78 73 2.0 7.0 0.00 0.00 0.00 63 1017.9
20260906212403 78 77 2.0 8.0 0.00 0.00 0.00 62 1018.2
20260906212306 78 62 2.0 8.0 0.00 0.00 0.00 64 1018.0
20260906212202 78 37 2.0 8.0 0.00 0.00 0.00 63 1018.0
20260906212102 77 34 2.0 8.0 0.00 0.00 0.00 63 1018.0
20260906212003 77 45 2.0 8.0 0.00 0.00 0.00 63 1018.0
20260906211904 77 55 2.0 8.0 0.00 0.00 0.00 64 1017.9
20260906211824 77 57 2.0 8.0 0.00 0.00 0.00 63 1018.0
20260906211703 77 59 2.0 8.0 0.00 0.00 0.00 63 1017.9
20260906211623 77 61 2.0 8.0 0.00 0.00 0.00 63 1018.0
20260906211504 77 60 2.0 8.0 0.00 0.00 0.00 63 1017.8
20260906211402 78 45 2.0 8.0 0.00 0.00 0.00 64 1018.0
20260906211302 78 59 2.0 8.0 0.00 0.00 0.00 63 1017.9
20260906211203 78 73 2.0 8.0 0.00 0.00 0.00 63 1018.1
20260906211103 78 71 2.0 8.0 0.00 0.00 0.00 63 1017.8
20260906211002 78 72 2.0 8.0 0.00 0.00 0.00 61 1017.9
20260906210923 78 68 2.0 8.0 0.00 0.00 0.00 64 1017.9
20260906210802 77 63 2.0 8.0 0.00 0.00 0.00 63 1017.8
20260906210703 77 56 2.0 8.0 0.00 0.00 0.00 65 1017.8
20260906210604 77 52 2.0 8.0 0.00 0.00 0.00 64 1018.0
20260906210502 77 58 2.0 8.0 0.00 0.00 0.00 64 1017.8
20260906210423 77 64 2.0 8.0 0.00 0.00 0.00 63 1017.8
20260906210302 77 56 2.0 8.0 0.00 0.00 0.00 63 1017.9
20260906210202 77 45 2.0 9.0 0.00 0.00 0.00 62 1017.8
20260906210003 77 44 2.0 9.0 0.00 0.00 0.00 62 1017.8
20260906205902 78 41 2.0 9.0 0.00 0.00 0.00 63 1017.8
20260906205825 78 44 2.0 9.0 0.00 0.00 0.00 62 1017.8
20260906205704 78 68 2.0 10.0 0.00 0.00 0.00 61 1017.8
20260906205603 78 80 2.0 10.0 0.00 0.00 0.00 61 1017.7
20260906205502 78 79 2.0 10.0 0.00 0.00 0.00 63 1017.8
20260906205424 78 68 3.0 11.0 0.00 0.00 0.00 62 1017.8
20260906205306 78 81 2.0 11.0 0.00 0.00 0.00 62 1017.8
20260906205224 78 82 2.0 11.0 0.00 0.00 0.00 62 1017.9
20260906205103 78 77 2.0 11.0 0.00 0.00 0.00 62 1017.8
20260906205025 78 73 2.0 11.0 0.00 0.00 0.00 62 1017.7
20260906204903 78 71 3.0 11.0 0.00 0.00 0.00 61 1017.8
20260906204803 78 57 3.0 11.0 0.00 0.00 0.00 63 1018.0
20260906204702 77 46 3.0 11.0 0.00 0.00 0.00 62 1017.8
20260906204604 77 40 2.0 11.0 0.00 0.00 0.00 64 1017.7
20260906204502 77 39 2.0 11.0 0.00 0.00 0.00 63 1017.9
20260906204402 77 40 2.0 10.0 0.00 0.00 0.00 65 1017.8
20260906204304 77 48 2.0 10.0 0.00 0.00 0.00 65 1018.1
20260906204203 77 39 2.0 10.0 0.00 0.00 0.00 65 1017.8
20260906204102 77 43 2.0 10.0 0.00 0.00 0.00 65 1017.8
20260906204004 77 46 2.0 10.0 0.00 0.00 0.00 65 1017.9
20260906203923 78 47 2.0 10.0 0.00 0.00 0.00 64 1017.7
20260906203803 78 66 2.0 7.0 0.00 0.00 0.00 64 1017.9
20260906203703 78 63 2.0 7.0 0.00 0.00 0.00 65 1017.8
20260906203602 77 58 2.0 7.0 0.00 0.00 0.00 64 1017.8
20260906203503 77 56 2.0 7.0 0.00 0.00 0.00 65 1017.8
20260906203403 77 56 2.0 7.0 0.00 0.00 0.00 66 1017.8
20260906203302 76 50 2.0 7.0 0.00 0.00 0.00 65 1017.8
20260906203203 76 53 2.0 7.0 0.00 0.00 0.00 65 1017.6
20260906203102 76 53 2.0 7.0 0.00 0.00 0.00 64 1017.9
20260906203004 76 54 2.0 7.0 0.00 0.00 0.00 65 1017.9
20260906202924 76 58 2.0 7.0 0.00 0.00 0.00 64 1017.8
20260906202802 76 56 2.0 7.0 0.00 0.00 0.00 65 1017.9
20260906202704 75 57 2.0 7.0 0.00 0.00 0.00 65 1017.8
20260906202603 75 63 2.0 7.0 0.00 0.00 0.00 66 1018.0
20260906202502 75 62 2.0 7.0 0.00 0.00 0.00 67 1017.8
20260906202423 74 60 2.0 7.0 0.00 0.00 0.00 68 1017.8
20260906202306 74 50 2.0 7.0 0.00 0.00 0.00 68 1017.8
20260906202202 74 56 2.0 7.0 0.00 0.00 0.00 70 1017.9
20260906202124 74 60 2.0 7.0 0.00 0.00 0.00 70 1017.9
20260906202002 74 51 2.0 7.0 0.00 0.00 0.00 69 1018.0
20260906201904 74 54 2.0 7.0 0.00 0.00 0.00 70 1017.9
20260906201802 74 51 2.0 7.0 0.00 0.00 0.00 70 1017.9
20260906201702 74 44 2.0 7.0 0.00 0.00 0.00 70 1017.9
20260906201603 74 35 2.0 8.0 0.00 0.00 0.00 71 1017.8
20260906201502 75 31 2.0 8.0 0.00 0.00 0.00 71 1017.9
20260906201404 75 45 2.0 8.0 0.00 0.00 0.00 70 1017.7
20260906201323 75 48 2.0 8.0 0.00 0.00 0.00 70 1017.7
20260906201203 75 43 2.0 8.0 0.00 0.00 0.00 71 1017.7
20260906201104 75 45 2.0 8.0 0.00 0.00 0.00 70 1017.8
20260906201004 75 42 2.0 8.0 0.00 0.00 0.00 71 1017.7
20260906200924 75 36 3.0 8.0 0.00 0.00 0.00 70 1017.7
20260906200802 75 29 2.0 8.0 0.00 0.00 0.00 71 1017.8
20260906200702 75 33 2.0 8.0 0.00 0.00 0.00 70 1017.9
20260906200602 76 43 2.0 7.0 0.00 0.00 0.00 69 1017.7
20260906200502 76 43 2.0 7.0 0.00 0.00 0.00 68 1017.9
20260906200403 77 35 1.0 7.0 0.00 0.00 0.00 67 1017.9
20260906200302 77 41 1.0 7.0 0.00 0.00 0.00 67 1017.7
20260906200202 77 41 1.0 7.0 0.00 0.00 0.00 65 1017.7
20260906200103 78 44 2.0 7.0 0.00 0.00 0.00 65 1017.7
20260906200002 78 49 1.0 6.0 0.00 0.00 0.00 63 1017.7
20260906195924 79 68 1.0 4.0 0.00 0.00 0.00 62 1017.8
20260906195802 79 80 1.0 4.0 0.00 0.00 0.00 61 1017.8
20260906195723 79 78 1.0 6.0 0.00 0.00 0.00 60 1017.6
20260906195604 78 81 1.0 6.0 0.00 0.00 0.00 61 1017.8
20260906195524 77 72 1.0 8.0 0.00 0.00 0.00 61 1017.9
20260906195403 77 73 1.0 8.0 0.00 0.00 0.00 62 1017.9
20260906195306 77 72 1.0 8.0 0.00 0.00 0.00 62 1017.8
20260906195202 76 83 1.0 8.0 0.00 0.00 0.00 63 1017.9
20260906195103 76 86 1.0 8.0 0.00 0.00 0.00 64 1017.7
20260906195002 76 67 1.0 8.0 0.00 0.00 0.00 65 1017.7
20260906194902 75 52 2.0 9.0 0.00 0.00 0.00 64 1017.7
20260906194802 75 48 2.0 9.0 0.00 0.00 0.00 66 1017.7
20260906194703 76 37 2.0 9.0 0.00 0.00 0.00 66 1017.8
20260906194623 76 37 2.0 9.0 0.00 0.00 0.00 66 1017.7
20260906194523 76 42 2.0 9.0 0.00 0.00 0.00 67 1017.8
20260906194403 76 41 2.0 9.0 0.00 0.00 0.00 67 1017.8
20260906194302 75 49 2.0 9.0 0.00 0.00 0.00 68 1017.7
20260906194202 75 51 2.0 9.0 0.00 0.00 0.00 67 1017.9
20260906194103 76 48 2.0 9.0 0.00 0.00 0.00 67 1017.9
20260906194002 77 59 2.0 9.0 0.00 0.00 0.00 66 1017.9
20260906193923 77 60 2.0 9.0 0.00 0.00 0.00 66 1017.8
20260906193802 79 72 1.0 8.0 0.00 0.00 0.00 63 1017.8
20260906193725 79 89 1.0 3.0 0.00 0.00 0.00 61 1017.9
20260906193603 79 104 1.0 3.0 0.00 0.00 0.00 58 1017.6
20260906193502 79 106 1.0 3.0 0.00 0.00 0.00 58 1017.7
20260906193402 78 104 1.0 3.0 0.00 0.00 0.00 55 1017.9
20260906193324 78 90 1.0 2.0 0.00 0.00 0.00 59 1017.9
20260906193202 77 86 1.0 2.0 0.00 0.00 0.00 62 1017.9
20260906193102 77 75 1.0 2.0 0.00 0.00 0.00 62 1017.9
20260906193024 76 61 1.0 3.0 0.00 0.00 0.00 63 1018.0
20260906192903 76 73 1.0 3.0 0.00 0.00 0.00 66 1018.0
20260906192804 76 76 1.0 3.0 0.00 0.00 0.00 65 1018.1
20260906192725 75 76 1.0 3.0 0.00 0.00 0.00 65 1017.9
20260906192603 75 76 1.0 3.0 0.00 0.00 0.00 66 1018.0
20260906192502 75 78 1.0 3.0 0.00 0.00 0.00 65 1018.2
20260906192404 75 75 1.0 3.0 0.00 0.00 0.00 67 1018.1
20260906192306 75 73 1.0 3.0 0.00 0.00 0.00 67 1018.1
20260906192225 75 70 0.0 3.0 0.00 0.00 0.00 66 1018.1
20260906192103 75 88 0.0 3.0 0.00 0.00 0.00 65 1018.2
20260906192004 75 93 0.0 3.0 0.00 0.00 0.00 65 1018.0
20260906191923 75 86 0.0 3.0 0.00 0.00 0.00 66 1018.0
20260906191823 75 85 0.0 3.0 0.00 0.00 0.00 66 1018.2
20260906191702 75 86 0.0 3.0 0.00 0.00 0.00 66 1018.1
20260906191602 75 87 1.0 4.0 0.00 0.00 0.00 66 1018.3
20260906191503 75 79 1.0 4.0 0.00 0.00 0.00 66 1018.2
20260906191402 75 85 1.0 4.0 0.00 0.00 0.00 65 1018.0
20260906191323 75 83 1.0 4.0 0.00 0.00 0.00 65 1018.0
20260906191202 75 87 1.0 4.0 0.00 0.00 0.00 65 1018.1
20260906191103 75 77 1.0 4.0 0.00 0.00 0.00 65 1018.0
20260906191004 75 81 1.0 4.0 0.00 0.00 0.00 66 1018.1
20260906190902 75 81 1.0 4.0 0.00 0.00 0.00 65 1018.3
20260906190802 75 84 1.0 4.0 0.00 0.00 0.00 64 1018.1
20260906190702 75 83 1.0 4.0 0.00 0.00 0.00 65 1018.1
20260906190604 75 85 1.0 4.0 0.00 0.00 0.00 65 1018.1
20260906190502 75 95 1.0 4.0 0.00 0.00 0.00 63 1018.2
20260906190403 76 93 1.0 4.0 0.00 0.00 0.00 65 1018.2
20260906190303 76 93 1.0 4.0 0.00 0.00 0.00 64 1018.2
20260906190203 77 88 0.0 3.0 0.00 0.00 0.00 63 1018.1
20260906190103 77 106 0.0 3.0 0.00 0.00 0.00 62 1018.1
20260906190004 77 108 0.0 3.0 0.00 0.00 0.00 61 1018.3
20260906185904 77 109 0.0 3.0 0.00 0.00 0.00 60 1018.1
20260906185804 77 106 0.0 3.0 0.00 0.00 0.00 60 1018.3
20260906185702 77 94 1.0 4.0 0.00 0.00 0.00 59 1018.0
20260906185602 78 96 1.0 4.0 0.00 0.00 0.00 58 1018.2
20260906185504 78 95 1.0 4.0 0.00 0.00 0.00 57 1018.2
20260906185424 78 92 1.0 4.0 0.00 0.00 0.00 59 1018.3
20260906185324 78 91 1.0 4.0 0.00 0.00 0.00 57 1018.2
20260906185202 79 94 1.0 4.0 0.00 0.00 0.00 58 1018.2
20260906185102 79 95 1.0 4.0 0.00 0.00 0.00 57 1018.1
20260906185003 79 96 1.0 4.0 0.00 0.00 0.00 56 1018.3
20260906184903 79 96 1.0 4.0 0.00 0.00 0.00 56 1018.3
20260906184803 79 95 1.0 4.0 0.00 0.00 0.00 56 1018.3
20260906184704 79 101 1.0 4.0 0.00 0.00 0.00 55 1018.2
20260906184604 79 100 1.0 4.0 0.00 0.00 0.00 55 1018.2
20260906184504 80 101 1.0 4.0 0.00 0.00 0.00 54 1018.3
20260906184404 82 101 1.0 4.0 0.00 0.00 0.00 53 1018.2
20260906184325 82 107 1.0 3.0 0.00 0.00 0.00 52 1018.3
20260906184203 82 104 1.0 3.0 0.00 0.00 0.00 51 1018.1
20260906184104 82 106 1.0 3.0 0.00 0.00 0.00 52 1018.2
20260906184002 82 109 1.0 4.0 0.00 0.00 0.00 54 1018.1
20260906183904 82 112 1.0 4.0 0.00 0.00 0.00 54 1018.1
20260906183803 82 111 1.0 4.0 0.00 0.00 0.00 55 1018.1
20260906183725 82 112 1.0 4.0 0.00 0.00 0.00 54 1018.3
20260906183623 81 113 1.0 4.0 0.00 0.00 0.00 52 1018.4
20260906183502 80 111 1.0 4.0 0.00 0.00 0.00 52 1018.4
20260906183404 80 108 1.0 4.0 0.00 0.00 0.00 52 1018.3
20260906183304 79 108 2.0 4.0 0.00 0.00 0.00 54 1018.2
20260906183203 79 111 2.0 4.0 0.00 0.00 0.00 54 1018.4
20260906183102 80 110 2.0 4.0 0.00 0.00 0.00 53 1018.3
20260906183002 80 107 1.0 4.0 0.00 0.00 0.00 53 1018.4
20260906182903 80 106 1.0 4.0 0.00 0.00 0.00 54 1018.3
20260906182804 80 106 1.0 4.0 0.00 0.00 0.00 53 1018.4
20260906182703 80 106 1.0 3.0 0.00 0.00 0.00 55 1018.4
20260906182603 80 102 1.0 4.0 0.00 0.00 0.00 54 1018.3
20260906182504 80 103 1.0 4.0 0.00 0.00 0.00 54 1018.4
20260906182403 80 102 1.0 4.0 0.00 0.00 0.00 52 1018.3
20260906182306 80 100 1.0 4.0 0.00 0.00 0.00 55 1018.3
20260906182204 80 105 1.0 4.0 0.00 0.00 0.00 53 1018.3
20260906182102 80 91 1.0 6.0 0.00 0.00 0.00 52 1018.4
20260906182002 80 89 1.0 6.0 0.00 0.00 0.00 54 1018.4
20260906181902 79 85 1.0 6.0 0.00 0.00 0.00 54 1018.3
20260906181823 78 86 1.0 6.0 0.00 0.00 0.00 56 1018.4
20260906181703 78 93 1.0 7.0 0.00 0.00 0.00 57 1018.2
20260906181603 78 99 1.0 7.0 0.00 0.00 0.00 56 1018.3
20260906181502 78 94 1.0 7.0 0.00 0.00 0.00 57 1018.2
20260906181402 78 90 2.0 7.0 0.00 0.00 0.00 55 1018.3
20260906181304 78 88 2.0 7.0 0.00 0.00 0.00 57 1018.2
20260906181204 78 80 2.0 7.0 0.00 0.00 0.00 56 1018.4
20260906181103 78 91 1.0 7.0 0.00 0.00 0.00 56 1018.4
20260906181002 78 95 1.0 7.0 0.00 0.00 0.00 55 1018.4
20260906180902 78 93 2.0 7.0 0.00 0.00 0.00 56 1018.4
20260906180803 78 91 2.0 7.0 0.00 0.00 0.00 55 1018.3
20260906180702 79 87 1.0 6.0 0.00 0.00 0.00 56 1018.4
20260906180602 79 81 1.0 6.0 0.00 0.00 0.00 54 1018.5
20260906180504 80 93 1.0 6.0 0.00 0.00 0.00 55 1018.4
20260906180402 80 98 1.0 4.0 0.00 0.00 0.00 57 1018.5
20260906180303 80 101 1.0 4.0 0.00 0.00 0.00 54 1018.3
20260906180202 80 77 1.0 10.0 0.00 0.00 0.00 51 1018.4
20260906180004 80 66 1.0 10.0 0.00 0.00 0.00 53 1018.5
20260906175903 80 66 1.0 10.0 0.00 0.00 0.00 52 1018.3
20260906175804 80 67 1.0 10.0 0.00 0.00 0.00 53 1018.4
20260906175704 80 68 1.0 10.0 0.00 0.00 0.00 54 1018.5
20260906175604 79 67 1.0 10.0 0.00 0.00 0.00 54 1018.3
20260906175502 79 69 1.0 10.0 0.00 0.00 0.00 52 1018.5
20260906175404 80 69 1.0 10.0 0.00 0.00 0.00 55 1018.6
20260906175306 81 80 1.0 10.0 0.00 0.00 0.00 54 1018.4
20260906175223 81 110 1.0 4.0 0.00 0.00 0.00 51 1018.3
20260906175103 81 114 1.0 4.0 0.00 0.00 0.00 52 1018.3
20260906175002 80 113 1.0 4.0 0.00 0.00 0.00 54 1018.6
20260906174902 80 112 1.0 4.0 0.00 0.00 0.00 54 1018.4
20260906174804 80 111 1.0 4.0 0.00 0.00 0.00 56 1018.3
20260906174702 80 106 1.0 4.0 0.00 0.00 0.00 55 1018.6
20260906174604 80 107 1.0 4.0 0.00 0.00 0.00 54 1018.4
20260906174503 80 102 1.0 4.0 0.00 0.00 0.00 53 1018.6
20260906174404 80 103 1.0 4.0 0.00 0.00 0.00 52 1018.5
20260906174303 80 100 1.0 6.0 0.00 0.00 0.00 55 1018.5
20260906174204 80 102 1.0 6.0 0.00 0.00 0.00 54 1018.5
20260906174104 80 104 1.0 6.0 0.00 0.00 0.00 58 1018.5
20260906174002 79 105 1.0 6.0 0.00 0.00 0.00 55 1018.7
20260906173903 79 104 2.0 8.0 0.00 0.00 0.00 56 1018.4
20260906173804 79 99 2.0 8.0 0.00 0.00 0.00 55 1018.3
20260906173703 79 98 2.0 8.0 0.00 0.00 0.00 56 1018.5
20260906173602 79 91 2.0 8.0 0.00 0.00 0.00 55 1018.6
20260906173524 79 91 2.0 8.0 0.00 0.00 0.00 56 1018.4
20260906173425 78 88 2.0 8.0 0.00 0.00 0.00 56 1018.4
20260906173302 78 81 2.0 8.0 0.00 0.00 0.00 57 1018.3
20260906173223 77 80 2.0 8.0 0.00 0.00 0.00 59 1018.6
20260906173102 77 80 2.0 8.0 0.00 0.00 0.00 59 1018.6
20260906173003 77 75 2.0 8.0 0.00 0.00 0.00 57 1018.6
20260906172902 77 71 1.0 6.0 0.00 0.00 0.00 58 1018.4
20260906172825 77 86 1.0 6.0 0.00 0.00 0.00 59 1018.4
20260906172704 77 101 1.0 6.0 0.00 0.00 0.00 57 1018.5
20260906172602 77 106 1.0 6.0 0.00 0.00 0.00 58 1018.6
20260906172504 77 107 1.0 6.0 0.00 0.00 0.00 57 1018.7
20260906172402 78 108 1.0 6.0 0.00 0.00 0.00 58 1018.6
20260906172306 78 108 1.0 6.0 0.00 0.00 0.00 56 1018.6
20260906172224 78 109 1.0 6.0 0.00 0.00 0.00 56 1018.7
20260906172102 78 107 2.0 6.0 0.00 0.00 0.00 57 1018.5
20260906172002 78 108 2.0 6.0 0.00 0.00 0.00 58 1018.5
20260906171904 78 108 2.0 6.0 0.00 0.00 0.00 58 1018.6
20260906171802 78 109 1.0 4.0 0.00 0.00 0.00 55 1018.7
20260906171703 77 105 1.0 4.0 0.00 0.00 0.00 56 1018.5
20260906171624 77 107 1.0 4.0 0.00 0.00 0.00 58 1018.5
20260906171503 76 90 1.0 6.0 0.00 0.00 0.00 59 1018.6
20260906171423 76 86 1.0 6.0 0.00 0.00 0.00 57 1018.6
20260906171302 76 84 1.0 6.0 0.00 0.00 0.00 59 1018.7
20260906171204 76 86 1.0 6.0 0.00 0.00 0.00 59 1018.8
20260906171103 76 89 1.0 6.0 0.00 0.00 0.00 59 1018.8
20260906171002 76 91 1.0 6.0 0.00 0.00 0.00 62 1018.7
20260906170902 76 86 1.0 6.0 0.00 0.00 0.00 62 1018.6
20260906170804 76 85 1.0 6.0 0.00 0.00 0.00 62 1018.6
20260906170723 76 84 1.0 6.0 0.00 0.00 0.00 61 1018.6
20260906170603 76 84 1.0 6.0 0.00 0.00 0.00 61 1018.7
20260906170502 76 98 1.0 4.0 0.00 0.00 0.00 59 1018.7
20260906170404 76 99 1.0 3.0 0.00 0.00 0.00 60 1018.7
20260906170304 76 106 1.0 3.0 0.00 0.00 0.00 59 1018.7
20260906170223 75 103 0.0 3.0 0.00 0.00 0.00 61 1018.6
20260906170004 75 92 1.0 6.0 0.00 0.00 0.00 63 1018.7
20260906165902 75 84 1.0 6.0 0.00 0.00 0.00 62 1018.8
20260906165802 75 89 1.0 6.0 0.00 0.00 0.00 63 1018.8
20260906165724 75 90 1.0 6.0 0.00 0.00 0.00 62 1018.8
20260906165602 75 91 1.0 6.0 0.00 0.00 0.00 62 1018.7
20260906165503 75 92 1.0 6.0 0.00 0.00 0.00 62 1018.9
20260906165425 75 95 1.0 6.0 0.00 0.00 0.00 62 1018.6
20260906165306 76 94 1.0 6.0 0.00 0.00 0.00 61 1018.8
20260906165203 77 93 1.0 6.0 0.00 0.00 0.00 60 1018.8
20260906165102 78 105 1.0 6.0 0.00 0.00 0.00 60 1018.7
20260906165002 78 104 1.0 6.0 0.00 0.00 0.00 59 1018.6
20260906164904 78 115 1.0 4.0 0.00 0.00 0.00 60 1018.9
20260906164802 77 112 1.0 4.0 0.00 0.00 0.00 60 1018.7
20260906164702 77 104 1.0 6.0 0.00 0.00 0.00 61 1018.8
20260906164623 76 94 1.0 6.0 0.00 0.00 0.00 59 1018.7
20260906164503 76 75 1.0 6.0 0.00 0.00 0.00 63 1018.7
20260906164404 75 70 1.0 7.0 0.00 0.00 0.00 62 1018.7
20260906164304 75 72 1.0 7.0 0.00 0.00 0.00 63 1018.9
20260906164204 75 79 2.0 7.0 0.00 0.00 0.00 64 1018.9
20260906164102 75 77 2.0 7.0 0.00 0.00 0.00 66 1018.9
20260906164025 75 75 2.0 7.0 0.00 0.00 0.00 63 1018.9
20260906163902 75 69 2.0 7.0 0.00 0.00 0.00 64 1018.7
20260906163803 76 66 2.0 7.0 0.00 0.00 0.00 63 1018.8
20260906163702 76 63 2.0 7.0 0.00 0.00 0.00 65 1018.8
20260906163603 77 80 1.0 7.0 0.00 0.00 0.00 62 1018.7
20260906163504 77 95 2.0 7.0 0.00 0.00 0.00 60 1018.9
20260906163402 77 97 2.0 7.0 0.00 0.00 0.00 60 1018.8
20260906163303 78 100 2.0 8.0 0.00 0.00 0.00 59 1018.8
20260906163202 77 98 2.0 8.0 0.00 0.00 0.00 62 1018.7
20260906163102 77 100 2.0 8.0 0.00 0.00 0.00 61 1018.9
20260906163003 77 102 2.0 8.0 0.00 0.00 0.00 60 1018.9
20260906162904 77 104 2.0 8.0 0.00 0.00 0.00 60 1018.8
20260906162802 77 105 2.0 8.0 0.00 0.00 0.00 60 1018.7
20260906162702 77 107 2.0 8.0 0.00 0.00 0.00 59 1018.8
20260906162604 77 108 2.0 8.0 0.00 0.00 0.00 59 1018.8
20260906162503 77 106 1.0 8.0 0.00 0.00 0.00 59 1018.9
20260906162402 77 108 1.0 8.0 0.00 0.00 0.00 59 1019.0
20260906162323 77 104 1.0 4.0 0.00 0.00 0.00 59 1019.0
20260906162203 77 101 1.0 4.0 0.00 0.00 0.00 60 1018.8
20260906162102 77 103 1.0 4.0 0.00 0.00 0.00 60 1018.8
20260906162025 77 97 1.0 4.0 0.00 0.00 0.00 59 1018.8
20260906161903 77 94 1.0 4.0 0.00 0.00 0.00 60 1018.7
20260906161802 76 101 0.0 4.0 0.00 0.00 0.00 63 1018.7
20260906161702 76 97 1.0 4.0 0.00 0.00 0.00 63 1018.9
20260906161604 76 102 1.0 4.0 0.00 0.00 0.00 62 1018.9
20260906161504 75 111 1.0 4.0 0.00 0.00 0.00 63 1019.0
20260906161404 75 109 1.0 4.0 0.00 0.00 0.00 63 1019.0
20260906161302 75 105 1.0 4.0 0.00 0.00 0.00 63 1019.0
20260906161202 76 107 1.0 4.0 0.00 0.00 0.00 63 1018.9
20260906161102 76 106 1.0 4.0 0.00 0.00 0.00 63 1018.9
20260906161004 76 107 1.0 4.0 0.00 0.00 0.00 62 1019.0
20260906160902 76 103 1.0 4.0 0.00 0.00 0.00 61 1018.8
20260906160803 76 104 1.0 4.0 0.00 0.00 0.00 62 1019.0
20260906160723 75 103 2.0 6.0 0.00 0.00 0.00 61 1018.9
20260906160603 75 100 2.0 6.0 0.00 0.00 0.00 63 1018.8
20260906160502 75 97 1.0 6.0 0.00 0.00 0.00 63 1019.0
20260906160402 74 107 2.0 7.0 0.00 0.00 0.00 63 1019.0
20260906160303 74 112 2.0 8.0 0.00 0.00 0.00 63 1019.1
20260906160203 75 111 2.0 8.0 0.00 0.00 0.00 65 1019.1
20260906160124 75 110 2.0 8.0 0.00 0.00 0.00 64 1019.1
20260906160003 76 110 2.0 8.0 0.00 0.00 0.00 62 1019.0
20260906155923 76 111 2.0 8.0 0.00 0.00 0.00 63 1018.9
20260906155824 77 113 2.0 8.0 0.00 0.00 0.00 62 1018.9
20260906155703 77 115 2.0 8.0 0.00 0.00 0.00 60 1019.0
20260906155604 76 118 2.0 8.0 0.00 0.00 0.00 59 1019.0
20260906155503 77 116 2.0 8.0 0.00 0.00 0.00 61 1019.0
20260906155403 77 108 1.0 8.0 0.00 0.00 0.00 62 1018.9
20260906155306 77 105 1.0 6.0 0.00 0.00 0.00 60 1019.0
20260906155202 77 110 1.0 7.0 0.00 0.00 0.00 61 1019.1
20260906155102 77 110 1.0 7.0 0.00 0.00 0.00 60 1018.9
20260906155023 77 111 1.0 7.0 0.00 0.00 0.00 59 1018.9
20260906154925 77 114 1.0 7.0 0.00 0.00 0.00 63 1019.2
20260906154824 76 113 1.0 7.0 0.00 0.00 0.00 61 1019.1
20260906154724 76 114 1.0 7.0 0.00 0.00 0.00 63 1019.1
20260906154602 76 116 1.0 7.0 0.00 0.00 0.00 66 1019.0
20260906154502 76 115 1.0 7.0 0.00 0.00 0.00 66 1019.2
20260906154404 76 113 1.0 7.0 0.00 0.00 0.00 64 1019.1
20260906154302 76 110 1.0 7.0 0.00 0.00 0.00 63 1019.0
20260906154203 75 106 1.0 4.0 0.00 0.00 0.00 63 1019.0
20260906154102 75 106 1.0 4.0 0.00 0.00 0.00 65 1019.0
20260906154003 74 103 1.0 4.0 0.00 0.00 0.00 66 1019.0
20260906153904 74 104 1.0 4.0 0.00 0.00 0.00 66 1018.9
20260906153802 74 96 1.0 4.0 0.00 0.00 0.00 65 1018.9
20260906153724 74 96 1.0 4.0 0.00 0.00 0.00 65 1019.0
20260906153602 75 93 1.0 4.0 0.00 0.00 0.00 66 1019.0
20260906153523 75 93 1.0 4.0 0.00 0.00 0.00 64 1019.0
20260906153403 75 93 1.0 4.0 0.00 0.00 0.00 64 1018.9
20260906153324 75 91 1.0 4.0 0.00 0.00 0.00 67 1018.9
20260906153224 75 91 1.0 4.0 0.00 0.00 0.00 65 1018.9
20260906153102 75 92 1.0 4.0 0.00 0.00 0.00 65 1019.0
20260906153023 75 92 1.0 4.0 0.00 0.00 0.00 64 1019.0
20260906152923 75 95 1.0 4.0 0.00 0.00 0.00 64 1019.1
20260906152802 75 108 1.0 3.0 0.00 0.00 0.00 66 1019.1
20260906152724 75 107 1.0 3.0 0.00 0.00 0.00 65 1019.1
20260906152604 74 108 1.0 3.0 0.00 0.00 0.00 67 1019.1
20260906152502 74 108 1.0 3.0 0.00 0.00 0.00 68 1019.2
20260906152423 74 108 1.0 3.0 0.00 0.00 0.00 68 1019.2
20260906152306 74 105 1.0 4.0 0.00 0.00 0.00 68 1019.1
20260906152204 74 103 1.0 6.0 0.00 0.00 0.00 67 1019.1
20260906152103 75 103 1.0 6.0 0.00 0.00 0.00 67 1018.9
20260906152004 75 102 1.0 6.0 0.00 0.00 0.00 67 1019.0
20260906151903 75 97 1.0 6.0 0.00 0.00 0.00 66 1019.1
20260906151804 74 92 1.0 6.0 0.00 0.00 0.00 67 1018.9
20260906151702 73 91 1.0 6.0 0.00 0.00 0.00 68 1018.9
20260906151603 73 84 1.0 6.0 0.00 0.00 0.00 69 1019.0
20260906151504 73 79 2.0 6.0 0.00 0.00 0.00 69 1018.9
20260906151403 73 79 2.0 6.0 0.00 0.00 0.00 69 1019.0
20260906151324 73 75 2.0 6.0 0.00 0.00 0.00 69 1018.9
20260906151204 73 80 1.0 6.0 0.00 0.00 0.00 68 1018.8
20260906151123 73 78 1.0 6.0 0.00 0.00 0.00 70 1018.9
20260906151003 73 75 1.0 6.0 0.00 0.00 0.00 68 1018.9
20260906150902 73 78 1.0 6.0 0.00 0.00 0.00 68 1019.1
20260906150803 73 86 1.0 6.0 0.00 0.00 0.00 69 1019.2
20260906150703 73 90 1.0 6.0 0.00 0.00 0.00 68 1019.0
20260906150623 73 94 1.0 4.0 0.00 0.00 0.00 68 1019.1
20260906150502 74 109 1.0 4.0 0.00 0.00 0.00 69 1019.1
20260906150402 74 120 0.0 3.0 0.00 0.00 0.00 68 1019.0
20260906150303 74 120 0.0 3.0 0.00 0.00 0.00 70 1019.1
20260906150202 74 117 1.0 3.0 0.00 0.00 0.00 69 1019.0
20260906150002 73 117 1.0 3.0 0.00 0.00 0.00 68 1018.9
20260906145902 73 109 1.0 3.0 0.00 0.00 0.00 69 1019.1
20260906145803 73 104 1.0 3.0 0.00 0.00 0.00 69 1018.9
20260906145702 73 103 1.0 3.0 0.00 0.00 0.00 69 1019.1
20260906145602 73 102 1.0 3.0 0.00 0.00 0.00 70 1019.1
20260906145502 73 100 1.0 4.0 0.00 0.00 0.00 69 1019.1
20260906145404 73 96 1.0 4.0 0.00 0.00 0.00 70 1019.1
20260906145306 72 96 1.0 4.0 0.00 0.00 0.00 69 1019.0
20260906145202 72 96 1.0 4.0 0.00 0.00 0.00 71 1018.9
20260906145123 72 96 1.0 4.0 0.00 0.00 0.00 71 1018.9
20260906145004 72 95 1.0 4.0 0.00 0.00 0.00 70 1018.8
20260906144924 72 97 1.0 4.0 0.00 0.00 0.00 69 1018.8
20260906144825 72 97 1.0 4.0 0.00 0.00 0.00 71 1019.1
20260906144702 72 99 1.0 4.0 0.00 0.00 0.00 71 1019.0
20260906144603 72 100 1.0 4.0 0.00 0.00 0.00 71 1019.0
20260906144502 72 102 1.0 4.0 0.00 0.00 0.00 71 1018.9
20260906144403 72 102 1.0 3.0 0.00 0.00 0.00 71 1018.8
20260906144302 72 102 1.0 3.0 0.00 0.00 0.00 73 1019.0
20260906144202 72 101 1.0 3.0 0.00 0.00 0.00 72 1018.9
20260906144103 72 99 1.0 3.0 0.00 0.00 0.00 71 1018.8
20260906144002 72 102 1.0 4.0 0.00 0.00 0.00 71 1018.8
20260906143925 72 103 1.0 4.0 0.00 0.00 0.00 71 1018.8
20260906143802 72 108 1.0 4.0 0.00 0.00 0.00 69 1018.9
20260906143704 72 107 1.0 4.0 0.00 0.00 0.00 71 1018.9
20260906143602 72 108 1.0 4.0 0.00 0.00 0.00 71 1018.8
20260906143504 72 107 1.0 4.0 0.00 0.00 0.00 72 1018.8
20260906143402 72 111 1.0 4.0 0.00 0.00 0.00 71 1018.7
20260906143302 72 112 1.0 4.0 0.00 0.00 0.00 72 1018.6
20260906143203 72 116 1.0 4.0 0.00 0.00 0.00 72 1018.8
20260906143102 72 118 1.0 4.0 0.00 0.00 0.00 72 1018.9
20260906143023 71 114 1.0 4.0 0.00 0.00 0.00 73 1018.7
20260906142923 71 113 1.0 4.0 0.00 0.00 0.00 73 1018.8
20260906142804 71 111 1.0 4.0 0.00 0.00 0.00 73 1018.8
20260906142702 71 109 1.0 4.0 0.00 0.00 0.00 73 1018.9
20260906142603 71 108 1.0 4.0 0.00 0.00 0.00 72 1018.7
20260906142524 71 109 1.0 4.0 0.00 0.00 0.00 74 1018.9
20260906142404 71 106 1.0 4.0 0.00 0.00 0.00 74 1018.9
20260906142325 71 106 1.0 4.0 0.00 0.00 0.00 74 1018.8
20260906142203 71 101 1.0 4.0 0.00 0.00 0.00 74 1018.9
20260906142102 71 102 1.0 4.0 0.00 0.00 0.00 75 1019.0
20260906142002 71 105 1.0 4.0 0.00 0.00 0.00 74 1018.9
20260906141903 71 105 1.0 4.0 0.00 0.00 0.00 75 1018.9
20260906141804 70 103 1.0 4.0 0.00 0.00 0.00 75 1018.7
20260906141702 70 103 1.0 4.0 0.00 0.00 0.00 75 1018.9
20260906141603 70 103 1.0 4.0 0.00 0.00 0.00 75 1018.9
20260906141503 70 102 1.0 4.0 0.00 0.00 0.00 75 1018.9
20260906141403 70 104 1.0 4.0 0.00 0.00 0.00 76 1018.7
20260906141324 70 105 1.0 4.0 0.00 0.00 0.00 76 1018.9
20260906141202 70 106 1.0 4.0 0.00 0.00 0.00 76 1018.6
20260906141102 70 105 1.0 4.0 0.00 0.00 0.00 75 1018.7
20260906141003 70 104 1.0 4.0 0.00 0.00 0.00 77 1018.8
20260906140902 70 101 1.0 3.0 0.00 0.00 0.00 78 1018.8
20260906140802 70 104 1.0 3.0 0.00 0.00 0.00 77 1018.7
20260906140702 70 102 1.0 6.0 0.00 0.00 0.00 77 1018.8
20260906140603 69 98 1.0 6.0 0.00 0.00 0.00 77 1018.8
20260906140502 69 99 1.0 6.0 0.00 0.00 0.00 78 1018.7
20260906140403 69 98 1.0 6.0 0.00 0.00 0.00 79 1018.8
20260906140304 69 97 1.0 6.0 0.00 0.00 0.00 79 1018.6
20260906140204 69 98 1.0 6.0 0.00 0.00 0.00 81 1018.7
20260906140125 69 99 1.0 6.0 0.00 0.00 0.00 81 1018.9
20260906140003 69 99 1.0 6.0 0.00 0.00 0.00 80 1018.8
20260906135904 69 100 1.0 6.0 0.00 0.00 0.00 79 1018.8
20260906135804 70 100 1.0 6.0 0.00 0.00 0.00 79 1018.6
20260906135702 70 103 1.0 4.0 0.00 0.00 0.00 78 1018.7
20260906135602 70 107 1.0 4.0 0.00 0.00 0.00 79 1018.8
20260906135503 69 107 1.0 4.0 0.00 0.00 0.00 77 1018.7
20260906135424 69 109 1.0 4.0 0.00 0.00 0.00 77 1018.7
20260906135323 69 108 1.0 3.0 0.00 0.00 0.00 78 1018.6
20260906135202 69 108 1.0 2.0 0.00 0.00 0.00 79 1018.7
20260906135103 69 109 1.0 2.0 0.00 0.00 0.00 80 1018.7
20260906135004 69 108 0.0 2.0 0.00 0.00 0.00 81 1018.6
20260906134903 69 108 0.0 2.0 0.00 0.00 0.00 81 1018.6
20260906134804 69 107 0.0 2.0 0.00 0.00 0.00 81 1018.7
20260906134703 69 103 0.0 2.0 0.00 0.00 0.00 81 1018.4
20260906134603 69 99 1.0 4.0 0.00 0.00 0.00 80 1018.4
20260906134523 68 98 1.0 4.0 0.00 0.00 0.00 80 1018.7
20260906134402 68 92 1.0 4.0 0.00 0.00 0.00 81 1018.5
20260906134325 68 92 0.0 4.0 0.00 0.00 0.00 81 1018.5
20260906134204 67 92 0.0 4.0 0.00 0.00 0.00 83 1018.5
20260906134124 67 94 1.0 4.0 0.00 0.00 0.00 85 1018.6
20260906134003 67 93 1.0 4.0 0.00 0.00 0.00 87 1018.5
20260906133923 66 93 1.0 4.0 0.00 0.00 0.00 87 1018.4
20260906133802 66 94 1.0 4.0 0.00 0.00 0.00 88 1018.6
20260906133702 65 94 1.0 4.0 0.00 0.00 0.00 89 1018.5
20260906133602 65 97 0.0 4.0 0.00 0.00 0.00 91 1018.7
20260906133502 64 105 0.0 3.0 0.00 0.00 0.00 94 1018.5
20260906133402 64 100 0.0 3.0 0.00 0.00 0.00 95 1018.6
20260906133303 64 99 0.0 6.0 0.00 0.00 0.00 96 1018.5
20260906133204 64 99 0.0 6.0 0.00 0.00 0.00 97 1018.5
20260906133124 63 97 0.0 6.0 0.00 0.00 0.00 98 1018.5
20260906133004 63 98 0.0 6.0 0.00 0.00 0.00 98 1018.6
20260906132902 63 98 0.0 6.0 0.00 0.00 0.00 98 1018.6
20260906132802 63 97 0.0 6.0 0.00 0.00 0.00 98 1018.5
20260906132703 63 102 0.0 6.0 0.00 0.00 0.00 99 1018.6
20260906132602 62 91 0.0 6.0 0.00 0.00 0.00 99 1018.7
20260906132502 62 91 0.0 6.0 0.00 0.00 0.00 99 1018.4
20260906132423 62 92 0.0 6.0 0.00 0.00 0.00 99 1018.5
20260906132306 62 85 0.0 3.0 0.00 0.00 0.00 99 1018.7
20260906132202 62 88 0.0 3.0 0.00 0.00 0.00 99 1018.5
20260906132103 62 94 0.0 3.0 0.00 0.00 0.00 99 1018.5
20260906132002 62 96 0.0 3.0 0.00 0.00 0.00 99 1018.6
20260906131902 62 96 0.0 3.0 0.00 0.00 0.00 99 1018.7
20260906131802 62 95 0.0 3.0 0.00 0.00 0.00 99 1018.7
20260906131724 62 89 0.0 3.0 0.00 0.00 0.00 99 1018.7
20260906131602 62 114 0.0 1.0 0.00 0.00 0.00 99 1018.6
20260906131525 61 114 0.0 1.0 0.00 0.00 0.00 99 1018.6
20260906131403 61 114 0.0 1.0 0.00 0.00 0.00 99 1018.6
20260906131304 62 115 0.0 1.0 0.00 0.00 0.00 99 1018.5
20260906131224 62 115 0.0 1.0 0.00 0.00 0.00 99 1018.5
20260906131125 62 122 0.0 1.0 0.00 0.00 0.00 99 1018.3
20260906131002 62 0 0.0 0.0 0.00 0.00 0.00 99 1018.4
20260906130902 62 123 0.0 2.0 0.00 0.00 0.00 99 1018.3
20260906130802 62 123 0.0 2.0 0.00 0.00 0.00 99 1018.5
20260906130725 62 123 0.0 2.0 0.00 0.00 0.00 99 1018.5
20260906130603 62 123 0.0 2.0 0.00 0.00 0.00 99 1018.5
20260906130503 62 123 0.0 2.0 0.00 0.00 0.00 99 1018.5
20260906130403 61 123 0.0 2.0 0.00 0.00 0.00 99 1018.3
20260906130303 61 123 0.0 2.0 0.00 0.00 0.00 99 1018.3
20260906130203 61 123 0.0 2.0 0.00 0.00 0.00 99 1018.4
20260906130124 61 123 0.0 2.0 0.00 0.00 0.00 99 1018.3
20260906130004 61 123 0.0 2.0 0.00 0.00 0.00 99 1018.6
20260906125903 60 0 0.0 0.0 0.00 0.00 0.00 99 1018.5
20260906125802 60 0 0.0 0.0 0.00 0.00 0.00 99 1018.5
20260906125703 60 0 0.0 0.0 0.00 0.00 0.00 99 1018.4
20260906125603 60 0 0.0 0.0 0.00 0.00 0.00 99 1018.4
20260906125502 60 0 0.0 0.0 0.00 0.00 0.00 99 1018.6
20260906125404 59 0 0.0 0.0 0.00 0.00 0.00 99 1018.3
20260906125305 59 0 0.0 0.0 0.00 0.00 0.00 99 1018.4
20260906125204 59 0 0.0 0.0 0.00 0.00 0.00 99 1018.4
20260906125104 59 0 0.0 0.0 0.00 0.00 0.00 99 1018.3
20260906125024 59 0 0.0 0.0 0.00 0.00 0.00 99 1018.4
20260906124904 59 0 0.0 0.0 0.00 0.00 0.00 99 1018.5
20260906124802 59 0 0.0 0.0 0.00 0.00 0.00 99 1018.4
20260906124702 59 0 0.0 0.0 0.00 0.00 0.00 99 1018.3
20260906124604 59 0 0.0 0.0 0.00 0.00 0.00 99 1018.3
20260906124524 59 0 0.0 0.0 0.00 0.00 0.00 99 1018.3
20260906124402 59 0 0.0 0.0 0.00 0.00 0.00 99 1018.3
20260906124302 59 0 0.0 0.0 0.00 0.00 0.00 99 1018.2
20260906124204 59 0 0.0 0.0 0.00 0.00 0.00 99 1018.3
20260906124103 58 0 0.0 0.0 0.00 0.00 0.00 99 1018.2
20260906124024 58 0 0.0 0.0 0.00 0.00 0.00 99 1018.3
20260906123923 58 0 0.0 0.0 0.00 0.00 0.00 99 1018.2
20260906123802 58 0 0.0 0.0 0.00 0.00 0.00 99 1018.2
20260906123702 58 0 0.0 0.0 0.00 0.00 0.00 99 1018.3
20260906123602 58 0 0.0 0.0 0.00 0.00 0.00 99 1018.3
20260906123503 58 0 0.0 0.0 0.00 0.00 0.00 99 1018.3
20260906123403 58 0 0.0 0.0 0.00 0.00 0.00 99 1018.0
20260906123302 58 0 0.0 0.0 0.00 0.00 0.00 99 1018.1
20260906123202 58 0 0.0 0.0 0.00 0.00 0.00 99 1018.2
20260906123102 58 0 0.0 0.0 0.00 0.00 0.00 99 1018.1
20260906123023 58 0 0.0 0.0 0.00 0.00 0.00 99 1018.2
20260906122925 58 0 0.0 0.0 0.00 0.00 0.00 99 1018.3
20260906122802 57 0 0.0 0.0 0.00 0.00 0.00 99 1018.0
20260906122702 57 0 0.0 0.0 0.00 0.00 0.00 99 1018.0
20260906122602 57 0 0.0 0.0 0.00 0.00 0.00 99 1018.0
20260906122504 57 0 0.0 0.0 0.00 0.00 0.00 99 1018.0
20260906122403 57 0 0.0 0.0 0.00 0.00 0.00 99 1018.1
20260906122305 57 0 0.0 0.0 0.00 0.00 0.00 99 1018.2
20260906122202 57 0 0.0 0.0 0.00 0.00 0.00 99 1018.2
20260906122102 57 0 0.0 0.0 0.00 0.00 0.00 99 1018.2
20260906122003 57 0 0.0 0.0 0.00 0.00 0.00 99 1018.3
20260906121925 57 0 0.0 0.0 0.00 0.00 0.00 99 1018.3
20260906121802 57 0 0.0 0.0 0.00 0.00 0.00 99 1018.1
20260906121702 57 0 0.0 0.0 0.00 0.00 0.00 99 1018.1
20260906121602 57 0 0.0 0.0 0.00 0.00 0.00 99 1018.1
20260906121525 57 0 0.0 0.0 0.00 0.00 0.00 99 1018.1
20260906121402 57 0 0.0 0.0 0.00 0.00 0.00 99 1018.1
20260906121324 56 0 0.0 0.0 0.00 0.00 0.00 99 1018.1
20260906121202 56 0 0.0 0.0 0.00 0.00 0.00 99 1018.2
20260906121103 56 0 0.0 0.0 0.00 0.00 0.00 99 1018.1
20260906121025 56 0 0.0 0.0 0.00 0.00 0.00 99 1018.1
20260906120904 56 0 0.0 0.0 0.00 0.00 0.00 99 1018.4
20260906120802 56 0 0.0 0.0 0.00 0.00 0.00 99 1018.0
20260906120704 56 0 0.0 0.0 0.00 0.00 0.00 99 1018.0
20260906120602 56 0 0.0 0.0 0.00 0.00 0.00 99 1018.1
20260906120503 56 0 0.0 0.0 0.00 0.00 0.00 99 1018.1
20260906120423 56 0 0.0 0.0 0.00 0.00 0.00 99 1018.1
20260906120302 55 0 0.0 0.0 0.00 0.00 0.00 99 1018.1
20260906120202 55 0 0.0 0.0 0.00 0.00 0.00 99 1018.1
20260906120003 55 0 0.0 0.0 0.00 0.00 0.00 99 1018.2
20260906115902 55 0 0.0 0.0 0.00 0.00 0.00 99 1018.1
20260906115804 55 0 0.0 0.0 0.00 0.00 0.00 99 1018.0
20260906115702 54 0 0.0 0.0 0.00 0.00 0.00 99 1017.9
20260906115602 54 0 0.0 0.0 0.00 0.00 0.00 99 1018.0
20260906115502 54 0 0.0 0.0 0.00 0.00 0.00 99 1018.1
20260906115402 54 0 0.0 0.0 0.00 0.00 0.00 99 1018.2
20260906115306 54 0 0.0 0.0 0.00 0.00 0.00 99 1018.1
20260906115204 54 0 0.0 0.0 0.00 0.00 0.00 99 1017.9
20260906115103 54 0 0.0 0.0 0.00 0.00 0.00 99 1017.9
20260906115002 54 0 0.0 0.0 0.00 0.00 0.00 99 1017.9
20260906114923 54 0 0.0 0.0 0.00 0.00 0.00 99 1018.0
20260906114824 54 0 0.0 0.0 0.00 0.00 0.00 99 1017.8
20260906114702 54 0 0.0 0.0 0.00 0.00 0.00 99 1017.8
20260906114602 54 0 0.0 0.0 0.00 0.00 0.00 99 1017.9
20260906114502 54 0 0.0 0.0 0.00 0.00 0.00 99 1018.0
20260906114404 54 0 0.0 0.0 0.00 0.00 0.00 99 1018.0
20260906114304 54 0 0.0 0.0 0.00 0.00 0.00 99 1017.8
20260906114202 54 0 0.0 0.0 0.00 0.00 0.00 99 1017.8
20260906114103 54 0 0.0 0.0 0.00 0.00 0.00 99 1017.9
20260906114004 54 0 0.0 0.0 0.00 0.00 0.00 99 1017.6
20260906113902 54 0 0.0 0.0 0.00 0.00 0.00 99 1017.8
20260906113802 54 0 0.0 0.0 0.00 0.00 0.00 99 1017.8
20260906113723 54 0 0.0 0.0 0.00 0.00 0.00 99 1017.9
20260906113624 54 0 0.0 0.0 0.00 0.00 0.00 99 1017.7
20260906113525 54 0 0.0 0.0 0.00 0.00 0.00 99 1017.8
20260906113402 54 0 0.0 0.0 0.00 0.00 0.00 99 1017.6
20260906113302 54 0 0.0 0.0 0.00 0.00 0.00 99 1017.7
20260906113202 54 0 0.0 0.0 0.00 0.00 0.00 99 1017.8
20260906113102 54 0 0.0 0.0 0.00 0.00 0.00 99 1017.6
20260906113003 54 0 0.0 0.0 0.00 0.00 0.00 99 1017.8
20260906112902 54 0 0.0 0.0 0.00 0.00 0.00 99 1017.6
20260906112804 54 0 0.0 0.0 0.00 0.00 0.00 99 1017.8
20260906112725 54 0 0.0 0.0 0.00 0.00 0.00 99 1017.7
20260906112623 54 0 0.0 0.0 0.00 0.00 0.00 99 1017.8
20260906112524 54 0 0.0 0.0 0.00 0.00 0.00 99 1017.6
20260906112403 54 0 0.0 0.0 0.00 0.00 0.00 99 1017.6
20260906112306 53 0 0.0 0.0 0.00 0.00 0.00 99 1017.7
20260906112204 53 0 0.0 0.0 0.00 0.00 0.00 99 1017.5
20260906112102 53 0 0.0 0.0 0.00 0.00 0.00 99 1017.4
20260906112003 53 0 0.0 0.0 0.00 0.00 0.00 99 1017.5
20260906111902 54 0 0.0 0.0 0.00 0.00 0.00 99 1017.5
20260906111804 54 0 0.0 0.0 0.00 0.00 0.00 99 1017.3
20260906111702 54 0 0.0 0.0 0.00 0.00 0.00 99 1017.5
20260906111602 54 0 0.0 0.0 0.00 0.00 0.00 99 1017.3
20260906111502 54 0 0.0 0.0 0.00 0.00 0.00 99 1017.4
20260906111403 54 0 0.0 0.0 0.00 0.00 0.00 99 1017.5
20260906111302 54 0 0.0 0.0 0.00 0.00 0.00 99 1017.5
20260906111203 54 0 0.0 0.0 0.00 0.00 0.00 99 1017.3
20260906111103 54 0 0.0 0.0 0.00 0.00 0.00 99 1017.4
20260906111023 53 0 0.0 0.0 0.00 0.00 0.00 99 1017.4
20260906110903 53 0 0.0 0.0 0.00 0.00 0.00 99 1017.3
20260906110804 53 0 0.0 0.0 0.00 0.00 0.00 99 1017.5
20260906110702 53 0 0.0 0.0 0.00 0.00 0.00 99 1017.4
20260906110603 53 0 0.0 0.0 0.00 0.00 0.00 99 1017.4
20260906110502 54 0 0.0 0.0 0.00 0.00 0.00 99 1017.3
20260906110423 54 0 0.0 0.0 0.00 0.00 0.00 99 1017.3
20260906110302 54 0 0.0 0.0 0.00 0.00 0.00 99 1017.2
20260906110224 54 0 0.0 0.0 0.00 0.00 0.00 99 1017.2
20260906110104 54 0 0.0 0.0 0.00 0.00 0.00 99 1017.3
20260906110003 54 0 0.0 0.0 0.00 0.00 0.00 99 1017.2
20260906105923 54 0 0.0 0.0 0.00 0.00 0.00 99 1017.3
20260906105804 54 0 0.0 0.0 0.00 0.00 0.00 99 1017.3
20260906105703 54 0 0.0 0.0 0.00 0.00 0.00 99 1017.5
20260906105603 54 0 0.0 0.0 0.00 0.00 0.00 99 1017.3
20260906105525 53 0 0.0 0.0 0.00 0.00 0.00 99 1017.1
20260906105423 53 0 0.0 0.0 0.00 0.00 0.00 99 1017.4
20260906105305 53 0 0.0 0.0 0.00 0.00 0.00 99 1017.5
20260906105203 53 0 0.0 0.0 0.00 0.00 0.00 99 1017.4
20260906105103 54 0 0.0 0.0 0.00 0.00 0.00 99 1017.2
20260906105024 54 0 0.0 0.0 0.00 0.00 0.00 99 1017.5
20260906104903 54 0 0.0 0.0 0.00 0.00 0.00 99 1017.5
20260906104802 54 0 0.0 0.0 0.00 0.00 0.00 99 1017.5
20260906104723 54 0 0.0 0.0 0.00 0.00 0.00 99 1017.5
20260906104602 54 0 0.0 0.0 0.00 0.00 0.00 99 1017.4
20260906104502 54 0 0.0 0.0 0.00 0.00 0.00 99 1017.4
20260906104402 54 0 0.0 0.0 0.00 0.00 0.00 99 1017.3
20260906104304 54 0 0.0 0.0 0.00 0.00 0.00 99 1017.3
20260906104223 54 0 0.0 0.0 0.00 0.00 0.00 99 1017.4
20260906104103 54 0 0.0 0.0 0.00 0.00 0.00 99 1017.4
20260906104002 54 0 0.0 0.0 0.00 0.00 0.00 99 1017.4
20260906103902 54 0 0.0 0.0 0.00 0.00 0.00 99 1017.6
20260906103803 54 0 0.0 0.0 0.00 0.00 0.00 99 1017.5
20260906103703 54 0 0.0 0.0 0.00 0.00 0.00 99 1017.4
20260906103603 54 0 0.0 0.0 0.00 0.00 0.00 99 1017.3
20260906103523 54 0 0.0 0.0 0.00 0.00 0.00 99 1017.4
20260906103402 54 0 0.0 0.0 0.00 0.00 0.00 99 1017.6
20260906103302 54 0 0.0 0.0 0.00 0.00 0.00 99 1017.6
20260906103202 54 0 0.0 0.0 0.00 0.00 0.00 99 1017.4
20260906103104 54 0 0.0 0.0 0.00 0.00 0.00 99 1017.2
20260906103004 54 0 0.0 0.0 0.00 0.00 0.00 99 1017.5
20260906102923 54 0 0.0 0.0 0.00 0.00 0.00 99 1017.5
20260906102804 54 0 0.0 0.0 0.00 0.00 0.00 99 1017.3
20260906102702 54 0 0.0 0.0 0.00 0.00 0.00 99 1017.2
20260906102603 54 0 0.0 0.0 0.00 0.00 0.00 99 1017.1
20260906102502 54 0 0.0 0.0 0.00 0.00 0.00 99 1017.3
20260906102402 54 0 0.0 0.0 0.00 0.00 0.00 99 1017.3
20260906102306 54 0 0.0 0.0 0.00 0.00 0.00 99 1017.3
20260906102204 54 0 0.0 0.0 0.00 0.00 0.00 99 1017.2
20260906102123 54 0 0.0 0.0 0.00 0.00 0.00 99 1017.3
20260906102002 54 0 0.0 0.0 0.00 0.00 0.00 99 1017.4
20260906101923 54 0 0.0 0.0 0.00 0.00 0.00 99 1017.4
20260906101804 54 0 0.0 0.0 0.00 0.00 0.00 99 1017.3
20260906101704 54 0 0.0 0.0 0.00 0.00 0.00 99 1017.4
20260906101604 54 0 0.0 0.0 0.00 0.00 0.00 99 1017.3
20260906101503 54 0 0.0 0.0 0.00 0.00 0.00 99 1017.3
20260906101402 54 0 0.0 0.0 0.00 0.00 0.00 99 1017.4
20260906101302 54 0 0.0 0.0 0.00 0.00 0.00 99 1017.4
20260906101202 54 0 0.0 0.0 0.00 0.00 0.00 99 1017.3
20260906101102 54 0 0.0 0.0 0.00 0.00 0.00 99 1017.3
20260906101024 54 0 0.0 0.0 0.00 0.00 0.00 99 1017.3
20260906100902 54 0 0.0 0.0 0.00 0.00 0.00 99 1017.2
20260906100823 54 0 0.0 0.0 0.00 0.00 0.00 99 1017.2
20260906100725 54 0 0.0 0.0 0.00 0.00 0.00 99 1017.2
20260906100602 54 0 0.0 0.0 0.00 0.00 0.00 99 1017.3
20260906100503 54 0 0.0 0.0 0.00 0.00 0.00 99 1017.3
20260906100424 54 0 0.0 0.0 0.00 0.00 0.00 99 1017.2
20260906100303 54 0 0.0 0.0 0.00 0.00 0.00 99 1017.2
20260906100202 54 0 0.0 0.0 0.00 0.00 0.00 99 1017.2
20260906100103 54 0 0.0 0.0 0.00 0.00 0.00 99 1017.3
20260906100003 54 0 0.0 0.0 0.00 0.00 0.00 99 1017.1
20260906095903 54 0 0.0 0.0 0.00 0.00 0.00 99 1017.1
20260906095803 54 0 0.0 0.0 0.00 0.00 0.00 99 1017.2
20260906095704 54 0 0.0 0.0 0.00 0.00 0.00 99 1017.3
20260906095603 54 0 0.0 0.0 0.00 0.00 0.00 99 1017.2
20260906095504 54 0 0.0 0.0 0.00 0.00 0.00 99 1017.1
20260906095403 54 0 0.0 0.0 0.00 0.00 0.00 99 1017.2
20260906095325 54 0 0.0 0.0 0.00 0.00 0.00 99 1017.3
20260906095203 54 0 0.0 0.0 0.00 0.00 0.00 99 1017.1
20260906095103 54 0 0.0 0.0 0.00 0.00 0.00 99 1017.2
20260906095004 54 0 0.0 0.0 0.00 0.00 0.00 99 1017.3
20260906094904 54 0 0.0 0.0 0.00 0.00 0.00 99 1017.1
20260906094802 55 0 0.0 0.0 0.00 0.00 0.00 99 1017.2
20260906094704 55 0 0.0 0.0 0.00 0.00 0.00 99 1016.9
20260906094604 55 0 0.0 0.0 0.00 0.00 0.00 99 1017.1
20260906094502 54 0 0.0 0.0 0.00 0.00 0.00 99 1017.1
20260906094403 54 0 0.0 0.0 0.00 0.00 0.00 99 1017.1
20260906094302 54 0 0.0 0.0 0.00 0.00 0.00 99 1017.1
20260906094202 54 0 0.0 0.0 0.00 0.00 0.00 99 1017.2
20260906094104 54 0 0.0 0.0 0.00 0.00 0.00 99 1017.1
20260906094004 54 0 0.0 0.0 0.00 0.00 0.00 99 1017.1
20260906093902 55 0 0.0 0.0 0.00 0.00 0.00 99 1017.1
20260906093804 55 0 0.0 0.0 0.00 0.00 0.00 99 1017.1
20260906093703 55 0 0.0 0.0 0.00 0.00 0.00 99 1017.0
20260906093625 55 0 0.0 0.0 0.00 0.00 0.00 99 1017.2
20260906093502 55 0 0.0 0.0 0.00 0.00 0.00 99 1017.2
20260906093404 55 0 0.0 0.0 0.00 0.00 0.00 99 1017.1
20260906093303 55 0 0.0 0.0 0.00 0.00 0.00 99 1017.2
20260906093202 55 0 0.0 0.0 0.00 0.00 0.00 99 1017.2
20260906093104 55 0 0.0 0.0 0.00 0.00 0.00 99 1017.3
20260906093002 55 0 0.0 0.0 0.00 0.00 0.00 99 1017.2
20260906092903 55 0 0.0 0.0 0.00 0.00 0.00 99 1016.9
20260906092803 55 0 0.0 0.0 0.00 0.00 0.00 99 1017.2
20260906092724 55 0 0.0 0.0 0.00 0.00 0.00 99 1017.3
20260906092602 55 0 0.0 0.0 0.00 0.00 0.00 99 1017.2
20260906092524 55 0 0.0 0.0 0.00 0.00 0.00 99 1017.1
20260906092404 55 0 0.0 0.0 0.00 0.00 0.00 99 1017.1
20260906092306 55 0 0.0 0.0 0.00 0.00 0.00 99 1017.1
20260906092203 55 0 0.0 0.0 0.00 0.00 0.00 99 1017.0
20260906092102 55 0 0.0 0.0 0.00 0.00 0.00 99 1017.1
20260906092003 55 0 0.0 0.0 0.00 0.00 0.00 99 1017.1
20260906091902 55 0 0.0 0.0 0.00 0.00 0.00 99 1017.1
20260906091802 55 0 0.0 0.0 0.00 0.00 0.00 99 1017.2
20260906091702 55 0 0.0 0.0 0.00 0.00 0.00 99 1017.2
20260906091602 55 0 0.0 0.0 0.00 0.00 0.00 99 1017.1
20260906091504 55 0 0.0 0.0 0.00 0.00 0.00 99 1017.2
20260906091423 55 0 0.0 0.0 0.00 0.00 0.00 99 1017.2
20260906091304 55 0 0.0 0.0 0.00 0.00 0.00 99 1017.1
20260906091203 55 0 0.0 0.0 0.00 0.00 0.00 99 1016.9
20260906091102 55 0 0.0 0.0 0.00 0.00 0.00 99 1017.2
20260906091003 55 0 0.0 0.0 0.00 0.00 0.00 99 1017.1
20260906090902 55 0 0.0 0.0 0.00 0.00 0.00 99 1017.0
20260906090803 55 0 0.0 0.0 0.00 0.00 0.00 99 1017.2
20260906090702 55 0 0.0 0.0 0.00 0.00 0.00 99 1017.0
20260906090603 55 0 0.0 0.0 0.00 0.00 0.00 99 1017.0
20260906090502 55 0 0.0 0.0 0.00 0.00 0.00 99 1017.2
20260906090402 55 0 0.0 0.0 0.00 0.00 0.00 99 1017.1
20260906090302 55 0 0.0 0.0 0.00 0.00 0.00 99 1017.3
20260906090202 55 0 0.0 0.0 0.00 0.00 0.00 99 1017.1
20260906090023 55 0 0.0 0.0 0.00 0.00 0.00 99 1017.3
20260906085902 55 0 0.0 0.0 0.00 0.00 0.00 99 1017.1
20260906085804 55 0 0.0 0.0 0.00 0.00 0.00 99 1017.0
20260906085702 55 0 0.0 0.0 0.00 0.00 0.00 99 1017.2
20260906085603 55 0 0.0 0.0 0.00 0.00 0.00 99 1017.1
20260906085503 55 0 0.0 0.0 0.00 0.00 0.00 99 1017.1
20260906085402 55 0 0.0 0.0 0.00 0.00 0.00 99 1017.3
20260906085306 55 0 0.0 0.0 0.00 0.00 0.00 99 1017.2
20260906085224 55 0 0.0 0.0 0.00 0.00 0.00 99 1017.2
20260906085102 55 0 0.0 0.0 0.00 0.00 0.00 99 1017.0
20260906085002 55 0 0.0 0.0 0.00 0.00 0.00 99 1017.0
20260906084903 55 0 0.0 0.0 0.00 0.00 0.00 99 1017.1
20260906084802 55 0 0.0 0.0 0.00 0.00 0.00 99 1017.1
20260906084703 55 0 0.0 0.0 0.00 0.00 0.00 99 1017.2
20260906084604 55 0 0.0 0.0 0.00 0.00 0.00 99 1017.1
20260906084523 55 0 0.0 0.0 0.00 0.00 0.00 99 1017.1
20260906084402 55 0 0.0 0.0 0.00 0.00 0.00 99 1017.2
20260906084323 55 0 0.0 0.0 0.00 0.00 0.00 99 1017.1
20260906084204 55 0 0.0 0.0 0.00 0.00 0.00 99 1017.0
20260906084103 55 0 0.0 0.0 0.00 0.00 0.00 99 1017.0
20260906084025 55 0 0.0 0.0 0.00 0.00 0.00 99 1017.1
20260906083902 55 0 0.0 0.0 0.00 0.00 0.00 99 1017.0
20260906083803 55 0 0.0 0.0 0.00 0.00 0.00 99 1017.1
20260906083702 55 0 0.0 0.0 0.00 0.00 0.00 99 1017.0
20260906083604 55 0 0.0 0.0 0.00 0.00 0.00 99 1016.9
20260906083504 56 0 0.0 0.0 0.00 0.00 0.00 99 1016.9
20260906083403 56 0 0.0 0.0 0.00 0.00 0.00 99 1016.8
20260906083323 56 0 0.0 0.0 0.00 0.00 0.00 99 1016.9
20260906083223 56 0 0.0 0.0 0.00 0.00 0.00 99 1016.9
20260906083104 56 0 0.0 0.0 0.00 0.00 0.00 99 1016.8
20260906083003 56 0 0.0 0.0 0.00 0.00 0.00 99 1016.8
20260906082904 56 0 0.0 0.0 0.00 0.00 0.00 99 1016.8
20260906082804 56 0 0.0 0.0 0.00 0.00 0.00 99 1016.8
20260906082723 55 0 0.0 0.0 0.00 0.00 0.00 99 1016.8
20260906082603 55 0 0.0 0.0 0.00 0.00 0.00 99 1016.6
20260906082502 55 0 0.0 0.0 0.00 0.00 0.00 99 1016.7
20260906082402 55 0 0.0 0.0 0.00 0.00 0.00 99 1016.5
20260906082305 55 0 0.0 0.0 0.00 0.00 0.00 99 1016.9
20260906082203 55 0 0.0 0.0 0.00 0.00 0.00 99 1016.9
20260906082103 55 0 0.0 0.0 0.00 0.00 0.00 99 1016.8
20260906082002 55 0 0.0 0.0 0.00 0.00 0.00 99 1016.8
20260906081902 55 0 0.0 0.0 0.00 0.00 0.00 99 1016.9
20260906081802 55 0 0.0 0.0 0.00 0.00 0.00 99 1016.9
20260906081703 55 0 0.0 0.0 0.00 0.00 0.00 99 1016.8
20260906081602 55 0 0.0 0.0 0.00 0.00 0.00 99 1016.8
20260906081504 55 0 0.0 0.0 0.00 0.00 0.00 99 1016.7
20260906081403 55 0 0.0 0.0 0.00 0.00 0.00 99 1016.8
20260906081302 55 0 0.0 0.0 0.00 0.00 0.00 99 1016.6
20260906081203 55 0 0.0 0.0 0.00 0.00 0.00 99 1016.8
20260906081103 55 0 0.0 0.0 0.00 0.00 0.00 99 1016.9
20260906081024 55 0 0.0 0.0 0.00 0.00 0.00 99 1016.9
20260906080923 55 0 0.0 0.0 0.00 0.00 0.00 99 1016.8
20260906080803 55 0 0.0 0.0 0.00 0.00 0.00 99 1016.7
20260906080703 55 0 0.0 0.0 0.00 0.00 0.00 99 1016.7
20260906080604 55 0 0.0 0.0 0.00 0.00 0.00 99 1016.7
20260906080502 55 0 0.0 0.0 0.00 0.00 0.00 99 1016.6
20260906080402 55 0 0.0 0.0 0.00 0.00 0.00 99 1016.7
20260906080304 55 0 0.0 0.0 0.00 0.00 0.00 99 1016.7
20260906080202 55 0 0.0 0.0 0.00 0.00 0.00 99 1016.8
20260906080104 55 0 0.0 0.0 0.00 0.00 0.00 99 1016.8
20260906080002 55 0 0.0 0.0 0.00 0.00 0.00 99 1016.7
20260906075902 55 0 0.0 0.0 0.00 0.00 0.00 99 1016.8
20260906075824 55 0 0.0 0.0 0.00 0.00 0.00 99 1016.6
20260906075703 55 0 0.0 0.0 0.00 0.00 0.00 99 1016.8
20260906075604 55 0 0.0 0.0 0.00 0.00 0.00 99 1016.6
20260906075502 55 0 0.0 0.0 0.00 0.00 0.00 99 1016.6
20260906075402 55 0 0.0 0.0 0.00 0.00 0.00 99 1016.5
20260906075306 55 0 0.0 0.0 0.00 0.00 0.00 99 1016.6
20260906075223 55 0 0.0 0.0 0.00 0.00 0.00 99 1016.6
20260906075103 55 0 0.0 0.0 0.00 0.00 0.00 99 1016.6
20260906075004 55 0 0.0 0.0 0.00 0.00 0.00 99 1016.6
20260906074902 55 0 0.0 0.0 0.00 0.00 0.00 99 1016.6
20260906074803 55 0 0.0 0.0 0.00 0.00 0.00 99 1016.5
20260906074702 55 0 0.0 0.0 0.00 0.00 0.00 99 1016.5
20260906074602 55 0 0.0 0.0 0.00 0.00 0.00 99 1016.4
20260906074502 55 0 0.0 0.0 0.00 0.00 0.00 99 1016.5
20260906074403 55 0 0.0 0.0 0.00 0.00 0.00 99 1016.5
20260906074303 55 0 0.0 0.0 0.00 0.00 0.00 99 1016.6
20260906074202 55 0 0.0 0.0 0.00 0.00 0.00 99 1016.5
20260906074125 55 0 0.0 0.0 0.00 0.00 0.00 99 1016.5
20260906074002 55 0 0.0 0.0 0.00 0.00 0.00 99 1016.5
20260906073904 55 0 0.0 0.0 0.00 0.00 0.00 99 1016.7
20260906073803 55 0 0.0 0.0 0.00 0.00 0.00 99 1016.4
20260906073703 55 0 0.0 0.0 0.00 0.00 0.00 99 1016.5
20260906073602 55 0 0.0 0.0 0.00 0.00 0.00 99 1016.7
20260906073503 55 0 0.0 0.0 0.00 0.00 0.00 99 1016.5
20260906073424 55 0 0.0 0.0 0.00 0.00 0.00 99 1016.5
20260906073304 55 0 0.0 0.0 0.00 0.00 0.00 99 1016.7
20260906073203 55 0 0.0 0.0 0.00 0.00 0.00 99 1016.6
20260906073102 55 0 0.0 0.0 0.00 0.00 0.00 99 1016.6
20260906073004 55 0 0.0 0.0 0.00 0.00 0.00 99 1016.7
20260906072903 55 0 0.0 0.0 0.00 0.00 0.00 99 1016.6
20260906072804 55 0 0.0 0.0 0.00 0.00 0.00 99 1016.6
20260906072702 55 0 0.0 0.0 0.00 0.00 0.00 99 1016.5
20260906072624 55 0 0.0 0.0 0.00 0.00 0.00 99 1016.5
20260906072504 55 0 0.0 0.0 0.00 0.00 0.00 99 1016.6
20260906072402 55 0 0.0 0.0 0.00 0.00 0.00 99 1016.6
20260906072305 55 0 0.0 0.0 0.00 0.00 0.00 99 1016.5
20260906072204 55 0 0.0 0.0 0.00 0.00 0.00 99 1016.6
20260906072103 55 0 0.0 0.0 0.00 0.00 0.00 99 1016.2
20260906072002 55 0 0.0 0.0 0.00 0.00 0.00 99 1016.5
20260906071904 55 0 0.0 0.0 0.00 0.00 0.00 99 1016.3
20260906071825 55 0 0.0 0.0 0.00 0.00 0.00 99 1016.3
20260906071702 55 0 0.0 0.0 0.00 0.00 0.00 99 1016.4
20260906071603 55 0 0.0 0.0 0.00 0.00 0.00 99 1016.5
20260906071523 55 0 0.0 0.0 0.00 0.00 0.00 99 1016.5
20260906071402 55 0 0.0 0.0 0.00 0.00 0.00 99 1016.3
20260906071302 55 0 0.0 0.0 0.00 0.00 0.00 99 1016.4
20260906071224 55 0 0.0 0.0 0.00 0.00 0.00 99 1016.4
20260906071102 55 0 0.0 0.0 0.00 0.00 0.00 99 1016.5
20260906071002 55 0 0.0 0.0 0.00 0.00 0.00 99 1016.5
20260906070903 56 0 0.0 0.0 0.00 0.00 0.00 99 1016.5
20260906070803 56 0 0.0 0.0 0.00 0.00 0.00 99 1016.6
20260906070702 56 0 0.0 0.0 0.00 0.00 0.00 99 1016.5
20260906070602 56 0 0.0 0.0 0.00 0.00 0.00 99 1016.6
20260906070504 56 0 0.0 0.0 0.00 0.00 0.00 99 1016.6
20260906070402 56 0 0.0 0.0 0.00 0.00 0.00 99 1016.5
20260906070302 56 0 0.0 0.0 0.00 0.00 0.00 99 1016.5
20260906070203 56 0 0.0 0.0 0.00 0.00 0.00 99 1016.5
20260906070124 56 0 0.0 0.0 0.00 0.00 0.00 99 1016.6
20260906070023 56 0 0.0 0.0 0.00 0.00 0.00 99 1016.5
20260906065904 56 0 0.0 0.0 0.00 0.00 0.00 99 1016.5
20260906065803 56 0 0.0 0.0 0.00 0.00 0.00 99 1016.6
20260906065703 56 0 0.0 0.0 0.00 0.00 0.00 99 1016.7
20260906065623 56 0 0.0 0.0 0.00 0.00 0.00 99 1016.4
20260906065524 56 0 0.0 0.0 0.00 0.00 0.00 99 1016.5
20260906065425 56 0 0.0 0.0 0.00 0.00 0.00 99 1016.6
20260906065305 56 0 0.0 0.0 0.00 0.00 0.00 99 1016.5
20260906065224 56 0 0.0 0.0 0.00 0.00 0.00 99 1016.6
20260906065104 56 0 0.0 0.0 0.00 0.00 0.00 99 1016.5
20260906065025 56 0 0.0 0.0 0.00 0.00 0.00 99 1016.6
20260906064924 56 0 0.0 0.0 0.00 0.00 0.00 99 1016.4
20260906064803 56 0 0.0 0.0 0.00 0.00 0.00 99 1016.6
20260906064702 56 0 0.0 0.0 0.00 0.00 0.00 99 1016.6
20260906064624 56 0 0.0 0.0 0.00 0.00 0.00 99 1016.5
20260906064524 56 0 0.0 0.0 0.00 0.00 0.00 99 1016.4
20260906064404 56 0 0.0 0.0 0.00 0.00 0.00 99 1016.5
20260906064303 56 0 0.0 0.0 0.00 0.00 0.00 99 1016.8
20260906064202 56 0 0.0 0.0 0.00 0.00 0.00 99 1016.4
20260906064102 56 0 0.0 0.0 0.00 0.00 0.00 99 1016.5
20260906064003 56 0 0.0 0.0 0.00 0.00 0.00 99 1016.5
20260906063902 56 0 0.0 0.0 0.00 0.00 0.00 99 1016.4
20260906063804 56 0 0.0 0.0 0.00 0.00 0.00 99 1016.4
20260906063724 56 0 0.0 0.0 0.00 0.00 0.00 99 1016.6
20260906063604 56 0 0.0 0.0 0.00 0.00 0.00 99 1016.4
20260906063523 56 0 0.0 0.0 0.00 0.00 0.00 99 1016.6
20260906063404 56 0 0.0 0.0 0.00 0.00 0.00 99 1016.4
20260906063303 56 0 0.0 0.0 0.00 0.00 0.00 99 1016.5
20260906063225 56 0 0.0 0.0 0.00 0.00 0.00 99 1016.7
20260906063102 56 0 0.0 0.0 0.00 0.00 0.00 99 1016.4
20260906063003 56 0 0.0 0.0 0.00 0.00 0.00 99 1016.5
20260906062902 56 0 0.0 0.0 0.00 0.00 0.00 99 1016.4
20260906062804 56 0 0.0 0.0 0.00 0.00 0.00 99 1016.5
20260906062725 56 0 0.0 0.0 0.00 0.00 0.00 99 1016.4
20260906062603 56 0 0.0 0.0 0.00 0.00 0.00 99 1016.4
20260906062502 56 0 0.0 0.0 0.00 0.00 0.00 99 1016.4
20260906062402 56 0 0.0 0.0 0.00 0.00 0.00 99 1016.5
20260906062305 56 0 0.0 0.0 0.00 0.00 0.00 99 1016.3
20260906062203 56 0 0.0 0.0 0.00 0.00 0.00 99 1016.5
20260906062123 56 0 0.0 0.0 0.00 0.00 0.00 99 1016.5
20260906062003 56 0 0.0 0.0 0.00 0.00 0.00 99 1016.4
20260906061903 56 0 0.0 0.0 0.00 0.00 0.00 99 1016.5
20260906061803 56 0 0.0 0.0 0.00 0.00 0.00 99 1016.4
20260906061704 56 0 0.0 0.0 0.00 0.00 0.00 99 1016.6
20260906061603 56 0 0.0 0.0 0.00 0.00 0.00 99 1016.3
20260906061503 56 0 0.0 0.0 0.00 0.00 0.00 99 1016.6
20260906061403 56 0 0.0 0.0 0.00 0.00 0.00 99 1016.6
20260906061303 56 0 0.0 0.0 0.00 0.00 0.00 99 1016.5
20260906061204 56 0 0.0 0.0 0.00 0.00 0.00 99 1016.5
20260906061104 56 0 0.0 0.0 0.00 0.00 0.00 99 1016.5
20260906061023 56 0 0.0 0.0 0.00 0.00 0.00 99 1016.5
20260906060924 56 0 0.0 0.0 0.00 0.00 0.00 99 1016.4
20260906060804 56 0 0.0 0.0 0.00 0.00 0.00 99 1016.5
20260906060703 56 0 0.0 0.0 0.00 0.00 0.00 99 1016.3
20260906060602 56 0 0.0 0.0 0.00 0.00 0.00 99 1016.5
20260906060523 56 0 0.0 0.0 0.00 0.00 0.00 99 1016.5
20260906060403 56 0 0.0 0.0 0.00 0.00 0.00 99 1016.2
20260906060303 56 0 0.0 0.0 0.00 0.00 0.00 99 1016.6
20260906060204 56 0 0.0 0.0 0.00 0.00 0.00 99 1016.2
20260906060003 56 0 0.0 0.0 0.00 0.00 0.00 99 1016.5
20260906055902 56 0 0.0 0.0 0.00 0.00 0.00 99 1016.4
20260906055802 56 0 0.0 0.0 0.00 0.00 0.00 99 1016.4
20260906055703 56 0 0.0 0.0 0.00 0.00 0.00 99 1016.5
20260906055603 56 0 0.0 0.0 0.00 0.00 0.00 99 1016.5
20260906055502 56 0 0.0 0.0 0.00 0.00 0.00 99 1016.4
20260906055404 56 0 0.0 0.0 0.00 0.00 0.00 99 1016.3
20260906055306 56 0 0.0 0.0 0.00 0.00 0.00 99 1016.3
20260906055202 56 0 0.0 0.0 0.00 0.00 0.00 99 1016.4
20260906055103 56 0 0.0 0.0 0.00 0.00 0.00 99 1016.3
20260906055003 56 0 0.0 0.0 0.00 0.00 0.00 99 1016.5
20260906054902 56 0 0.0 0.0 0.00 0.00 0.00 99 1016.4
20260906054802 56 0 0.0 0.0 0.00 0.00 0.00 98 1016.3
20260906054723 56 0 0.0 0.0 0.00 0.00 0.00 98 1016.3
20260906054602 56 0 0.0 0.0 0.00 0.00 0.00 98 1016.3
20260906054503 56 0 0.0 0.0 0.00 0.00 0.00 98 1016.3
20260906054404 56 0 0.0 0.0 0.00 0.00 0.00 98 1016.3
20260906054303 56 0 0.0 0.0 0.00 0.00 0.00 98 1016.2
20260906054203 56 0 0.0 0.0 0.00 0.00 0.00 98 1016.3
20260906054103 56 0 0.0 0.0 0.00 0.00 0.00 98 1016.2
20260906054003 56 0 0.0 0.0 0.00 0.00 0.00 98 1016.2
20260906053903 56 0 0.0 0.0 0.00 0.00 0.00 99 1016.0
20260906053802 56 0 0.0 0.0 0.00 0.00 0.00 98 1016.0
20260906053702 56 0 0.0 0.0 0.00 0.00 0.00 98 1016.2
20260906053603 56 0 0.0 0.0 0.00 0.00 0.00 99 1016.2
20260906053524 56 0 0.0 0.0 0.00 0.00 0.00 98 1016.0
20260906053425 56 0 0.0 0.0 0.00 0.00 0.00 98 1016.1
20260906053325 56 0 0.0 0.0 0.00 0.00 0.00 98 1016.2
20260906053202 56 0 0.0 0.0 0.00 0.00 0.00 98 1016.0
20260906053104 56 0 0.0 0.0 0.00 0.00 0.00 98 1016.1
20260906053003 56 0 0.0 0.0 0.00 0.00 0.00 98 1016.3
20260906052902 56 0 0.0 0.0 0.00 0.00 0.00 98 1016.3
20260906052802 57 0 0.0 0.0 0.00 0.00 0.00 98 1016.1
20260906052703 57 0 0.0 0.0 0.00 0.00 0.00 98 1016.4
20260906052603 57 0 0.0 0.0 0.00 0.00 0.00 98 1016.3
20260906052503 57 0 0.0 0.0 0.00 0.00 0.00 98 1016.2
20260906052404 57 0 0.0 0.0 0.00 0.00 0.00 98 1016.4
20260906052305 57 0 0.0 0.0 0.00 0.00 0.00 98 1016.1
20260906052202 57 0 0.0 0.0 0.00 0.00 0.00 98 1016.1
20260906052102 57 0 0.0 0.0 0.00 0.00 0.00 98 1016.2
20260906052024 57 0 0.0 0.0 0.00 0.00 0.00 98 1016.2
20260906051904 57 0 0.0 0.0 0.00 0.00 0.00 98 1016.2
20260906051802 57 0 0.0 0.0 0.00 0.00 0.00 98 1016.3
20260906051724 57 0 0.0 0.0 0.00 0.00 0.00 98 1016.3
20260906051602 57 0 0.0 0.0 0.00 0.00 0.00 98 1016.3
20260906051503 57 0 0.0 0.0 0.00 0.00 0.00 98 1016.2
20260906051425 57 0 0.0 0.0 0.00 0.00 0.00 98 1016.2
20260906051302 57 0 0.0 0.0 0.00 0.00 0.00 98 1016.3
20260906051204 57 0 0.0 0.0 0.00 0.00 0.00 98 1016.3
20260906051124 57 0 0.0 0.0 0.00 0.00 0.00 98 1016.4
20260906051004 57 0 0.0 0.0 0.00 0.00 0.00 98 1016.4
20260906050923 57 0 0.0 0.0 0.00 0.00 0.00 98 1016.2
20260906050803 57 0 0.0 0.0 0.00 0.00 0.00 98 1016.4
20260906050703 57 0 0.0 0.0 0.00 0.00 0.00 98 1016.4
20260906050602 57 0 0.0 0.0 0.00 0.00 0.00 98 1016.4
20260906050503 57 0 0.0 0.0 0.00 0.00 0.00 98 1016.6
20260906050404 57 0 0.0 0.0 0.00 0.00 0.00 98 1016.5
20260906050323 57 0 0.0 0.0 0.00 0.00 0.00 98 1016.5
20260906050203 57 0 0.0 0.0 0.00 0.00 0.00 98 1016.4
20260906050104 57 0 0.0 0.0 0.00 0.00 0.00 98 1016.3
20260906050002 57 0 0.0 0.0 0.00 0.00 0.00 98 1016.4
20260906045902 57 0 0.0 0.0 0.00 0.00 0.00 98 1016.4
20260906045802 57 0 0.0 0.0 0.00 0.00 0.00 98 1016.3
20260906045702 57 0 0.0 0.0 0.00 0.00 0.00 98 1016.3
20260906045625 57 0 0.0 0.0 0.00 0.00 0.00 98 1016.4
20260906045503 57 0 0.0 0.0 0.00 0.00 0.00 98 1016.4
20260906045403 57 0 0.0 0.0 0.00 0.00 0.00 98 1016.5
20260906045306 57 0 0.0 0.0 0.00 0.00 0.00 98 1016.3
20260906045202 57 0 0.0 0.0 0.00 0.00 0.00 98 1016.4
20260906045102 57 0 0.0 0.0 0.00 0.00 0.00 98 1016.5
20260906045003 57 0 0.0 0.0 0.00 0.00 0.00 98 1016.3
20260906044902 57 0 0.0 0.0 0.00 0.00 0.00 98 1016.4
20260906044823 57 0 0.0 0.0 0.00 0.00 0.00 98 1016.4
20260906044703 57 0 0.0 0.0 0.00 0.00 0.00 98 1016.4
20260906044603 57 0 0.0 0.0 0.00 0.00 0.00 98 1016.3
20260906044525 57 0 0.0 0.0 0.00 0.00 0.00 98 1016.3
20260906044402 57 0 0.0 0.0 0.00 0.00 0.00 98 1016.4
20260906044303 57 0 0.0 0.0 0.00 0.00 0.00 98 1016.3
20260906044224 57 0 0.0 0.0 0.00 0.00 0.00 98 1016.5
20260906044103 57 0 0.0 0.0 0.00 0.00 0.00 98 1016.5
20260906044003 57 0 0.0 0.0 0.00 0.00 0.00 98 1016.2
20260906043924 57 0 0.0 0.0 0.00 0.00 0.00 98 1016.4
20260906043803 58 0 0.0 0.0 0.00 0.00 0.00 98 1016.4
20260906043704 58 0 0.0 0.0 0.00 0.00 0.00 98 1016.5
20260906043603 57 0 0.0 0.0 0.00 0.00 0.00 98 1016.4
20260906043502 57 0 0.0 0.0 0.00 0.00 0.00 98 1016.5
20260906043402 57 0 0.0 0.0 0.00 0.00 0.00 98 1016.5
20260906043302 57 0 0.0 0.0 0.00 0.00 0.00 98 1016.3
20260906043202 57 0 0.0 0.0 0.00 0.00 0.00 98 1016.5
20260906043103 57 0 0.0 0.0 0.00 0.00 0.00 98 1016.4
20260906043024 57 0 0.0 0.0 0.00 0.00 0.00 98 1016.3
20260906042902 57 0 0.0 0.0 0.00 0.00 0.00 98 1016.5
20260906042825 57 0 0.0 0.0 0.00 0.00 0.00 98 1016.3
20260906042702 57 0 0.0 0.0 0.00 0.00 0.00 98 1016.4
20260906042602 57 0 0.0 0.0 0.00 0.00 0.00 98 1016.4
20260906042504 58 0 0.0 0.0 0.00 0.00 0.00 98 1016.4
20260906042403 58 0 0.0 0.0 0.00 0.00 0.00 98 1016.4
20260906042306 58 0 0.0 0.0 0.00 0.00 0.00 98 1016.3
20260906042202 58 0 0.0 0.0 0.00 0.00 0.00 98 1016.4
20260906042103 58 0 0.0 0.0 0.00 0.00 0.00 98 1016.2
20260906042003 58 0 0.0 0.0 0.00 0.00 0.00 98 1016.4
20260906041904 58 0 0.0 0.0 0.00 0.00 0.00 98 1016.3
20260906041803 58 0 0.0 0.0 0.00 0.00 0.00 98 1016.5
20260906041704 58 0 0.0 0.0 0.00 0.00 0.00 98 1016.5
20260906041602 58 0 0.0 0.0 0.00 0.00 0.00 98 1016.7
20260906041504 58 0 0.0 0.0 0.00 0.00 0.00 98 1016.6
20260906041404 58 0 0.0 0.0 0.00 0.00 0.00 98 1016.4
20260906041302 58 0 0.0 0.0 0.00 0.00 0.00 98 1016.4
20260906041204 58 0 0.0 0.0 0.00 0.00 0.00 98 1016.4
20260906041102 58 0 0.0 0.0 0.00 0.00 0.00 98 1016.7
20260906041002 58 0 0.0 0.0 0.00 0.00 0.00 98 1016.8
20260906040925 58 0 0.0 0.0 0.00 0.00 0.00 98 1016.8
20260906040825 58 0 0.0 0.0 0.00 0.00 0.00 98 1016.3
20260906040704 58 0 0.0 0.0 0.00 0.00 0.00 98 1016.5
20260906040603 58 0 0.0 0.0 0.00 0.00 0.00 98 1016.6
20260906040502 58 0 0.0 0.0 0.00 0.00 0.00 98 1016.7
20260906040404 58 0 0.0 0.0 0.00 0.00 0.00 98 1016.7
20260906040324 58 0 0.0 0.0 0.00 0.00 0.00 98 1016.7
20260906040202 58 0 0.0 0.0 0.00 0.00 0.00 98 1016.8
20260906040025 58 0 0.0 0.0 0.00 0.00 0.00 98 1016.6
20260906035903 58 0 0.0 0.0 0.00 0.00 0.00 98 1016.8
20260906035804 58 0 0.0 0.0 0.00 0.00 0.00 98 1016.5
20260906035704 58 0 0.0 0.0 0.00 0.00 0.00 98 1016.6
20260906035603 58 0 0.0 0.0 0.00 0.00 0.00 98 1016.5
20260906035502 58 0 0.0 0.0 0.00 0.00 0.00 97 1016.6
20260906035402 58 0 0.0 0.0 0.00 0.00 0.00 97 1016.5
20260906035324 58 0 0.0 0.0 0.00 0.00 0.00 97 1016.7
20260906035203 58 0 0.0 0.0 0.00 0.00 0.00 97 1016.4
20260906035102 58 0 0.0 0.0 0.00 0.00 0.00 97 1016.6
20260906035003 58 0 0.0 0.0 0.00 0.00 0.00 98 1016.6
20260906034903 58 0 0.0 0.0 0.00 0.00 0.00 97 1016.4
20260906034803 58 0 0.0 0.0 0.00 0.00 0.00 97 1016.6
20260906034724 58 0 0.0 0.0 0.00 0.00 0.00 97 1016.5
20260906034603 58 0 0.0 0.0 0.00 0.00 0.00 98 1016.5
20260906034503 58 0 0.0 0.0 0.00 0.00 0.00 97 1016.4
20260906034425 58 0 0.0 0.0 0.00 0.00 0.00 97 1016.5
20260906034303 58 0 0.0 0.0 0.00 0.00 0.00 97 1016.6
20260906034204 58 0 0.0 0.0 0.00 0.00 0.00 97 1016.3
20260906034103 58 0 0.0 0.0 0.00 0.00 0.00 97 1016.5
20260906034023 58 0 0.0 0.0 0.00 0.00 0.00 97 1016.4
20260906033902 58 0 0.0 0.0 0.00 0.00 0.00 97 1016.4
20260906033803 58 0 0.0 0.0 0.00 0.00 0.00 97 1016.4
20260906033702 58 0 0.0 0.0 0.00 0.00 0.00 97 1016.5
20260906033603 58 0 0.0 0.0 0.00 0.00 0.00 97 1016.4
20260906033502 58 0 0.0 0.0 0.00 0.00 0.00 97 1016.3
20260906033402 58 0 0.0 0.0 0.00 0.00 0.00 97 1016.4
20260906033324 58 0 0.0 0.0 0.00 0.00 0.00 97 1016.3
20260906033203 58 0 0.0 0.0 0.00 0.00 0.00 97 1016.5
20260906033102 58 0 0.0 0.0 0.00 0.00 0.00 97 1016.6
20260906033003 58 0 0.0 0.0 0.00 0.00 0.00 97 1016.6
20260906032903 58 0 0.0 0.0 0.00 0.00 0.00 97 1016.6
20260906032802 58 0 0.0 0.0 0.00 0.00 0.00 97 1016.6
20260906032704 58 0 0.0 0.0 0.00 0.00 0.00 97 1016.6
20260906032624 58 0 0.0 0.0 0.00 0.00 0.00 97 1016.6
20260906032503 58 0 0.0 0.0 0.00 0.00 0.00 97 1016.5
20260906032404 59 0 0.0 0.0 0.00 0.00 0.00 97 1016.5
20260906032306 59 0 0.0 0.0 0.00 0.00 0.00 97 1016.4
20260906032204 58 0 0.0 0.0 0.00 0.00 0.00 97 1016.3
20260906032102 59 0 0.0 0.0 0.00 0.00 0.00 97 1016.6
20260906032024 59 0 0.0 0.0 0.00 0.00 0.00 97 1016.6
20260906031903 59 0 0.0 0.0 0.00 0.00 0.00 97 1016.7
20260906031802 59 0 0.0 0.0 0.00 0.00 0.00 97 1016.5
20260906031724 59 0 0.0 0.0 0.00 0.00 0.00 97 1016.5
20260906031603 59 0 0.0 0.0 0.00 0.00 0.00 97 1016.4
20260906031502 59 0 0.0 0.0 0.00 0.00 0.00 97 1016.5
20260906031404 59 0 0.0 0.0 0.00 0.00 0.00 97 1016.5
20260906031302 59 0 0.0 0.0 0.00 0.00 0.00 97 1016.6
20260906031203 59 0 0.0 0.0 0.00 0.00 0.00 97 1016.6
20260906031102 59 0 0.0 0.0 0.00 0.00 0.00 97 1016.5
20260906031003 58 0 0.0 0.0 0.00 0.00 0.00 97 1016.4
20260906030903 58 0 0.0 0.0 0.00 0.00 0.00 97 1016.6
20260906030804 58 0 0.0 0.0 0.00 0.00 0.00 96 1016.7
20260906030704 58 0 0.0 0.0 0.00 0.00 0.00 96 1016.6
20260906030623 58 0 0.0 0.0 0.00 0.00 0.00 96 1016.6
20260906030503 59 0 0.0 0.0 0.00 0.00 0.00 96 1016.5
20260906030425 59 0 0.0 0.0 0.00 0.00 0.00 96 1016.4
20260906030304 59 0 0.0 0.0 0.00 0.00 0.00 96 1016.6
20260906030224 59 0 0.0 0.0 0.00 0.00 0.00 96 1016.5
20260906030004 59 0 0.0 0.0 0.00 0.00 0.00 96 1016.4
20260906025904 59 0 0.0 0.0 0.00 0.00 0.00 96 1016.5
20260906025824 59 0 0.0 0.0 0.00 0.00 0.00 96 1016.6
20260906025704 59 0 0.0 0.0 0.00 0.00 0.00 96 1016.6
20260906025623 59 0 0.0 0.0 0.00 0.00 0.00 96 1016.5
20260906025503 59 0 0.0 0.0 0.00 0.00 0.00 96 1016.5
20260906025404 59 0 0.0 0.0 0.00 0.00 0.00 96 1016.4
20260906025306 59 0 0.0 0.0 0.00 0.00 0.00 96 1016.5
20260906025204 59 0 0.0 0.0 0.00 0.00 0.00 96 1016.5
20260906025104 59 0 0.0 0.0 0.00 0.00 0.00 96 1016.3
20260906025003 59 0 0.0 0.0 0.00 0.00 0.00 96 1016.4
20260906024904 59 0 0.0 0.0 0.00 0.00 0.00 96 1016.3
20260906024825 59 0 0.0 0.0 0.00 0.00 0.00 96 1016.3
20260906024703 59 0 0.0 0.0 0.00 0.00 0.00 96 1016.4
20260906024604 59 0 0.0 0.0 0.00 0.00 0.00 96 1016.3
20260906024502 59 0 0.0 0.0 0.00 0.00 0.00 96 1016.4
20260906024403 59 0 0.0 0.0 0.00 0.00 0.00 96 1016.3
20260906024302 59 0 0.0 0.0 0.00 0.00 0.00 96 1016.3
20260906024203 59 0 0.0 0.0 0.00 0.00 0.00 96 1016.2
20260906024103 59 0 0.0 0.0 0.00 0.00 0.00 96 1016.4
20260906024004 59 0 0.0 0.0 0.00 0.00 0.00 96 1016.2
20260906023902 59 0 0.0 0.0 0.00 0.00 0.00 96 1016.3
20260906023804 59 0 0.0 0.0 0.00 0.00 0.00 95 1016.4
20260906023702 59 0 0.0 0.0 0.00 0.00 0.00 95 1016.4
20260906023602 59 0 0.0 0.0 0.00 0.00 0.00 95 1016.4
20260906023502 59 0 0.0 0.0 0.00 0.00 0.00 95 1016.3
20260906023402 59 0 0.0 0.0 0.00 0.00 0.00 95 1016.3
20260906023303 59 0 0.0 0.0 0.00 0.00 0.00 95 1016.5
20260906023203 59 0 0.0 0.0 0.00 0.00 0.00 95 1016.4
20260906023102 59 0 0.0 0.0 0.00 0.00 0.00 95 1016.3
20260906023004 59 0 0.0 0.0 0.00 0.00 0.00 95 1016.4
20260906022903 59 0 0.0 0.0 0.00 0.00 0.00 95 1016.4
20260906022802 59 0 0.0 0.0 0.00 0.00 0.00 95 1016.3
20260906022703 59 0 0.0 0.0 0.00 0.00 0.00 95 1016.3
20260906022625 59 0 0.0 0.0 0.00 0.00 0.00 95 1016.3
20260906022503 59 0 0.0 0.0 0.00 0.00 0.00 95 1016.1
20260906022404 59 0 0.0 0.0 0.00 0.00 0.00 95 1016.3
20260906022306 59 0 0.0 0.0 0.00 0.00 0.00 95 1016.3
20260906022202 59 0 0.0 0.0 0.00 0.00 0.00 95 1016.2
20260906022103 59 0 0.0 0.0 0.00 0.00 0.00 95 1016.3
20260906022002 59 0 0.0 0.0 0.00 0.00 0.00 95 1016.2
20260906021903 60 0 0.0 0.0 0.00 0.00 0.00 95 1016.1
20260906021824 60 0 0.0 0.0 0.00 0.00 0.00 95 1016.1
20260906021704 60 0 0.0 0.0 0.00 0.00 0.00 95 1015.9
20260906021603 60 0 0.0 0.0 0.00 0.00 0.00 95 1016.1
20260906021502 60 0 0.0 0.0 0.00 0.00 0.00 95 1016.0
20260906021403 60 0 0.0 0.0 0.00 0.00 0.00 95 1016.0
20260906021302 60 0 0.0 0.0 0.00 0.00 0.00 95 1016.2
20260906021204 60 0 0.0 0.0 0.00 0.00 0.00 95 1016.1
20260906021104 60 0 0.0 0.0 0.00 0.00 0.00 95 1016.0
20260906021004 60 0 0.0 0.0 0.00 0.00 0.00 94 1016.2
20260906020904 60 0 0.0 0.0 0.00 0.00 0.00 94 1016.3
20260906020802 60 0 0.0 0.0 0.00 0.00 0.00 94 1016.1
20260906020703 60 0 0.0 0.0 0.00 0.00 0.00 94 1016.2
20260906020603 60 0 0.0 0.0 0.00 0.00 0.00 94 1016.0
20260906020503 60 0 0.0 0.0 0.00 0.00 0.00 94 1016.2
20260906020402 60 0 0.0 0.0 0.00 0.00 0.00 94 1016.3
20260906020323 60 0 0.0 0.0 0.00 0.00 0.00 94 1016.1
20260906020203 60 0 0.0 0.0 0.00 0.00 0.00 94 1016.1
20260906020003 60 0 0.0 0.0 0.00 0.00 0.00 94 1016.1
20260906015902 60 0 0.0 0.0 0.00 0.00 0.00 94 1016.1
20260906015803 60 0 0.0 0.0 0.00 0.00 0.00 94 1016.3
20260906015704 60 0 0.0 0.0 0.00 0.00 0.00 94 1016.1
20260906015602 60 0 0.0 0.0 0.00 0.00 0.00 94 1016.1
20260906015502 60 0 0.0 0.0 0.00 0.00 0.00 94 1016.1
20260906015425 60 0 0.0 0.0 0.00 0.00 0.00 94 1016.2
20260906015305 60 0 0.0 0.0 0.00 0.00 0.00 94 1016.1
20260906015225 60 0 0.0 0.0 0.00 0.00 0.00 94 1016.1
20260906015102 60 0 0.0 0.0 0.00 0.00 0.00 94 1016.1
20260906015002 60 0 0.0 0.0 0.00 0.00 0.00 94 1016.0
20260906014904 60 0 0.0 0.0 0.00 0.00 0.00 94 1016.0
20260906014823 60 0 0.0 0.0 0.00 0.00 0.00 94 1016.1
20260906014703 60 0 0.0 0.0 0.00 0.00 0.00 94 1016.0
20260906014604 60 0 0.0 0.0 0.00 0.00 0.00 94 1016.0
20260906014504 60 0 0.0 0.0 0.00 0.00 0.00 94 1016.0
20260906014402 60 0 0.0 0.0 0.00 0.00 0.00 94 1016.1
20260906014304 60 0 0.0 0.0 0.00 0.00 0.00 93 1016.0
20260906014224 60 0 0.0 0.0 0.00 0.00 0.00 93 1015.9
20260906014104 61 0 0.0 0.0 0.00 0.00 0.00 93 1016.0
20260906014003 61 0 0.0 0.0 0.00 0.00 0.00 93 1015.9
20260906013902 61 0 0.0 0.0 0.00 0.00 0.00 93 1016.0
20260906013802 61 0 0.0 0.0 0.00 0.00 0.00 93 1015.9
20260906013702 61 0 0.0 0.0 0.00 0.00 0.00 93 1015.9
20260906013604 61 0 0.0 0.0 0.00 0.00 0.00 93 1016.0
20260906013502 61 0 0.0 0.0 0.00 0.00 0.00 93 1016.0
20260906013403 61 0 0.0 0.0 0.00 0.00 0.00 93 1015.9
20260906013303 61 0 0.0 0.0 0.00 0.00 0.00 93 1015.9
20260906013203 61 0 0.0 0.0 0.00 0.00 0.00 93 1015.9
20260906013103 61 0 0.0 0.0 0.00 0.00 0.00 93 1016.0
20260906013002 61 0 0.0 0.0 0.00 0.00 0.00 93 1016.1
20260906012904 61 0 0.0 0.0 0.00 0.00 0.00 93 1016.1
20260906012804 61 0 0.0 0.0 0.00 0.00 0.00 93 1016.0
20260906012702 61 0 0.0 0.0 0.00 0.00 0.00 93 1016.0
20260906012602 61 0 0.0 0.0 0.00 0.00 0.00 93 1016.0
20260906012503 61 0 0.0 0.0 0.00 0.00 0.00 93 1016.0
20260906012403 61 0 0.0 0.0 0.00 0.00 0.00 93 1016.1
20260906012306 61 0 0.0 0.0 0.00 0.00 0.00 93 1016.0
20260906012203 61 0 0.0 0.0 0.00 0.00 0.00 93 1016.0
20260906012102 61 0 0.0 0.0 0.00 0.00 0.00 93 1016.1
20260906012003 61 0 0.0 0.0 0.00 0.00 0.00 92 1016.0
20260906011925 61 0 0.0 0.0 0.00 0.00 0.00 92 1015.7
20260906011823 61 0 0.0 0.0 0.00 0.00 0.00 92 1016.0
20260906011704 62 0 0.0 0.0 0.00 0.00 0.00 92 1015.9
20260906011604 62 0 0.0 0.0 0.00 0.00 0.00 92 1015.7
20260906011503 62 0 0.0 0.0 0.00 0.00 0.00 92 1015.6
20260906011403 62 0 0.0 0.0 0.00 0.00 0.00 92 1016.0
20260906011303 62 0 0.0 0.0 0.00 0.00 0.00 92 1015.7
20260906011204 62 0 0.0 0.0 0.00 0.00 0.00 92 1015.6
20260906011102 62 0 0.0 0.0 0.00 0.00 0.00 91 1015.7
20260906011003 62 0 0.0 0.0 0.00 0.00 0.00 91 1015.7
20260906010903 62 0 0.0 0.0 0.00 0.00 0.00 91 1015.7
20260906010802 62 0 0.0 0.0 0.00 0.00 0.00 91 1015.6
20260906010704 62 0 0.0 0.0 0.00 0.00 0.00 91 1015.6
20260906010604 62 0 0.0 0.0 0.00 0.00 0.00 91 1015.9
20260906010503 62 0 0.0 0.0 0.00 0.00 0.00 90 1015.7
20260906010404 62 0 0.0 0.0 0.00 0.00 0.00 90 1015.7
20260906010302 62 0 0.0 0.0 0.00 0.00 0.00 90 1015.6
20260906010203 62 0 0.0 0.0 0.00 0.00 0.00 90 1015.7
20260906010103 62 0 0.0 0.0 0.00 0.00 0.00 90 1015.7
20260906010003 62 0 0.0 0.0 0.00 0.00 0.00 90 1015.6
20260906005902 62 0 0.0 0.0 0.00 0.00 0.00 89 1015.6
20260906005803 63 0 0.0 0.0 0.00 0.00 0.00 89 1015.5
20260906005703 63 0 0.0 0.0 0.00 0.00 0.00 89 1015.4
20260906005603 63 0 0.0 0.0 0.00 0.00 0.00 89 1015.5
20260906005503 63 0 0.0 0.0 0.00 0.00 0.00 89 1015.5
20260906005403 63 0 0.0 0.0 0.00 0.00 0.00 89 1015.7
20260906005306 63 0 0.0 0.0 0.00 0.00 0.00 88 1015.5
20260906005224 63 0 0.0 0.0 0.00 0.00 0.00 88 1015.5
20260906005104 63 0 0.0 0.0 0.00 0.00 0.00 88 1015.5
20260906005004 63 0 0.0 0.0 0.00 0.00 0.00 88 1015.7
20260906004904 63 0 0.0 0.0 0.00 0.00 0.00 87 1015.5
20260906004804 63 0 0.0 0.0 0.00 0.00 0.00 87 1015.6
20260906004704 63 0 0.0 0.0 0.00 0.00 0.00 87 1015.4
20260906004604 63 0 0.0 0.0 0.00 0.00 0.00 87 1015.7
20260906004504 63 0 0.0 0.0 0.00 0.00 0.00 86 1015.5
20260906004404 63 0 0.0 0.0 0.00 0.00 0.00 86 1015.6
20260906004303 64 0 0.0 0.0 0.00 0.00 0.00 86 1015.4
20260906004223 64 0 0.0 0.0 0.00 0.00 0.00 86 1015.4
20260906004103 64 0 0.0 0.0 0.00 0.00 0.00 86 1015.5
20260906004003 64 0 0.0 0.0 0.00 0.00 0.00 86 1015.4
20260906003902 64 0 0.0 0.0 0.00 0.00 0.00 85 1015.3
20260906003803 64 0 0.0 0.0 0.00 0.00 0.00 85 1015.6
20260906003704 64 0 0.0 0.0 0.00 0.00 0.00 85 1015.6
20260906003604 64 0 0.0 0.0 0.00 0.00 0.00 84 1015.6
20260906003502 64 0 0.0 0.0 0.00 0.00 0.00 84 1015.6
20260906003423 64 0 0.0 0.0 0.00 0.00 0.00 84 1015.7
20260906003303 64 0 0.0 0.0 0.00 0.00 0.00 84 1016.0
20260906003203 65 0 0.0 0.0 0.00 0.00 0.00 84 1015.6
20260906003102 65 0 0.0 0.0 0.00 0.00 0.00 83 1015.4
20260906003003 65 0 0.0 0.0 0.00 0.00 0.00 83 1016.0
20260906002902 65 0 0.0 0.0 0.00 0.00 0.00 83 1015.7
20260906002802 65 0 0.0 0.0 0.00 0.00 0.00 82 1015.7
20260906002703 65 0 0.0 0.0 0.00 0.00 0.00 82 1015.6
20260906002624 65 0 0.0 0.0 0.00 0.00 0.00 81 1015.9
20260906002503 65 0 0.0 0.0 0.00 0.00 0.00 81 1015.6
20260906002402 65 0 0.0 0.0 0.00 0.00 0.00 81 1015.6
20260906002305 66 0 0.0 0.0 0.00 0.00 0.00 80 1015.3
20260906002203 66 0 0.0 0.0 0.00 0.00 0.00 80 1015.5
20260906002102 66 0 0.0 0.0 0.00 0.00 0.00 79 1015.4
20260906002024 66 0 0.0 0.0 0.00 0.00 0.00 79 1015.4
20260906001903 66 0 0.0 0.0 0.00 0.00 0.00 78 1015.5
20260906001802 66 0 0.0 0.0 0.00 0.00 0.00 78 1015.6
20260906001725 66 0 0.0 0.0 0.00 0.00 0.00 78 1015.4
20260906001603 66 0 0.0 0.0 0.00 0.00 0.00 78 1015.4
20260906001502 66 0 0.0 0.0 0.00 0.00 0.00 76 1015.6
20260906001403 67 0 0.0 0.0 0.00 0.00 0.00 77 1015.5
20260906001303 67 0 0.0 0.0 0.00 0.00 0.00 76 1015.5
20260906001203 67 0 0.0 0.0 0.00 0.00 0.00 76 1015.5
20260906001103 67 0 0.0 0.0 0.00 0.00 0.00 75 1015.4
20260906001003 67 0 0.0 0.0 0.00 0.00 0.00 76 1015.5
20260906000902 67 0 0.0 0.0 0.00 0.00 0.00 76 1015.3
20260906000824 67 0 0.0 0.0 0.00 0.00 0.00 75 1015.3
20260906000724 67 0 0.0 0.0 0.00 0.00 0.00 74 1015.5
20260906000603 67 0 0.0 0.0 0.00 0.00 0.00 75 1015.3
20260906000503 68 0 0.0 0.0 0.00 0.00 0.00 74 1015.3
20260906000403 68 0 0.0 0.0 0.00 0.00 0.00 73 1015.2
20260906000304 68 0 0.0 0.0 0.00 0.00 0.00 73 1015.3
20260906000204 68 0 0.0 0.0 0.00 0.00 0.00 73 1015.3
20260906000104 68 0 0.0 0.0 0.00 0.00 0.00 74 1015.1
20260906000003 68 0 0.0 0.0 0.00 0.00 0.00 71 1015.1
20260905235904 68 0 0.0 0.0 0.00 0.00 0.00 72 1015.2
20260905235803 69 0 0.0 0.0 0.00 0.00 0.00 71 1015.3
20260905235703 69 0 0.0 0.0 0.00 0.00 0.00 71 1015.2
20260905235602 69 0 0.0 0.0 0.00 0.00 0.00 71 1015.2
20260905235503 69 108 0.0 2.0 0.00 0.00 0.00 70 1015.1
20260905235404 69 93 0.0 2.0 0.00 0.00 0.00 70 1015.2
20260905235306 69 93 0.0 2.0 0.00 0.00 0.00 70 1015.3
20260905235224 69 93 0.0 2.0 0.00 0.00 0.00 70 1015.3
20260905235103 69 93 0.0 2.0 0.00 0.00 0.00 69 1015.1
20260905235003 70 93 0.0 2.0 0.00 0.00 0.00 69 1015.1
20260905234924 70 93 0.0 2.0 0.00 0.00 0.00 69 1015.1
20260905234802 70 95 0.0 2.0 0.00 0.00 0.00 68 1015.1
20260905234724 70 85 0.0 2.0 0.00 0.00 0.00 68 1015.1
20260905234603 70 90 0.0 2.0 0.00 0.00 0.00 67 1015.0
20260905234524 70 92 0.0 2.0 0.00 0.00 0.00 66 1015.0
20260905234425 70 92 0.0 2.0 0.00 0.00 0.00 68 1015.0
20260905234302 71 95 0.0 2.0 0.00 0.00 0.00 67 1015.2
20260905234225 71 95 0.0 2.0 0.00 0.00 0.00 66 1015.1
20260905234103 71 88 0.0 2.0 0.00 0.00 0.00 66 1015.2
20260905234004 71 88 0.0 2.0 0.00 0.00 0.00 65 1015.1
20260905233903 71 88 0.0 2.0 0.00 0.00 0.00 65 1015.2
20260905233802 71 87 0.0 2.0 0.00 0.00 0.00 64 1015.1
20260905233703 72 95 0.0 2.0 0.00 0.00 0.00 65 1015.0
20260905233603 72 98 0.0 2.0 0.00 0.00 0.00 64 1015.1
20260905233502 72 87 0.0 2.0 0.00 0.00 0.00 65 1015.4
20260905233403 72 77 0.0 3.0 0.00 0.00 0.00 64 1015.2
20260905233302 72 77 0.0 3.0 0.00 0.00 0.00 65 1015.3
20260905233203 72 80 0.0 3.0 0.00 0.00 0.00 64 1015.2
20260905233103 72 85 0.0 3.0 0.00 0.00 0.00 64 1015.1
20260905233004 72 87 0.0 3.0 0.00 0.00 0.00 63 1015.0
20260905232904 72 88 0.0 3.0 0.00 0.00 0.00 64 1015.2
20260905232802 72 95 1.0 3.0 0.00 0.00 0.00 64 1015.3
20260905232723 73 86 1.0 4.0 0.00 0.00 0.00 63 1015.3
20260905232624 73 79 1.0 4.0 0.00 0.00 0.00 63 1015.1
20260905232525 73 81 1.0 4.0 0.00 0.00 0.00 63 1015.1
20260905232405 73 83 1.0 4.0 0.00 0.00 0.00 63 1015.1
20260905232305 73 83 1.0 4.0 0.00 0.00 0.00 62 1015.2
20260905232204 73 80 1.0 4.0 0.00 0.00 0.00 63 1015.2
20260905232103 73 80 1.0 4.0 0.00 0.00 0.00 62 1015.0
20260905232003 73 77 1.0 4.0 0.00 0.00 0.00 62 1014.9
20260905231902 73 73 1.0 6.0 0.00 0.00 0.00 62 1015.0
20260905231803 73 76 1.0 8.0 0.00 0.00 0.00 62 1014.8
20260905231703 73 84 1.0 8.0 0.00 0.00 0.00 62 1014.9
20260905231625 73 80 1.0 8.0 0.00 0.00 0.00 61 1014.8
20260905231503 73 79 1.0 8.0 0.00 0.00 0.00 61 1015.0
20260905231404 73 78 1.0 8.0 0.00 0.00 0.00 62 1015.0
20260905231302 73 81 1.0 8.0 0.00 0.00 0.00 62 1015.0
20260905231202 73 67 1.0 8.0 0.00 0.00 0.00 63 1014.8
20260905231104 73 68 2.0 8.0 0.00 0.00 0.00 63 1014.8
20260905231003 73 65 2.0 8.0 0.00 0.00 0.00 62 1015.0
20260905230903 74 68 2.0 8.0 0.00 0.00 0.00 64 1015.0
20260905230824 74 67 2.0 8.0 0.00 0.00 0.00 62 1014.9
20260905230724 74 66 2.0 8.0 0.00 0.00 0.00 63 1015.0
20260905230624 74 66 2.0 8.0 0.00 0.00 0.00 64 1014.8
20260905230524 74 56 2.0 8.0 0.00 0.00 0.00 63 1015.0
20260905230403 74 60 2.0 8.0 0.00 0.00 0.00 63 1014.9
20260905230303 74 52 2.0 8.0 0.00 0.00 0.00 63 1014.8
20260905230203 74 63 2.0 8.0 0.00 0.00 0.00 63 1014.9
20260905230003 74 64 2.0 4.0 0.00 0.00 0.00 62 1014.8
20260905225902 74 63 2.0 6.0 0.00 0.00 0.00 63 1014.8
20260905225803 74 58 2.0 6.0 0.00 0.00 0.00 63 1014.8
20260905225704 74 56 2.0 6.0 0.00 0.00 0.00 63 1014.8
20260905225604 74 58 2.0 6.0 0.00 0.00 0.00 63 1014.9
20260905225504 74 70 2.0 6.0 0.00 0.00 0.00 63 1014.8
20260905225403 74 64 1.0 6.0 0.00 0.00 0.00 63 1014.9
20260905225305 74 74 1.0 6.0 0.00 0.00 0.00 65 1014.8
20260905225204 74 73 1.0 6.0 0.00 0.00 0.00 65 1014.8
20260905225103 74 66 1.0 6.0 0.00 0.00 0.00 65 1014.8
20260905225003 74 74 1.0 6.0 0.00 0.00 0.00 65 1014.8
20260905224902 74 66 1.0 6.0 0.00 0.00 0.00 64 1014.9
20260905224825 74 77 1.0 6.0 0.00 0.00 0.00 65 1014.9
20260905224702 74 74 1.0 6.0 0.00 0.00 0.00 65 1014.8
20260905224604 74 68 1.0 6.0 0.00 0.00 0.00 66 1014.8
20260905224503 74 58 1.0 6.0 0.00 0.00 0.00 65 1014.8
20260905224404 74 59 1.0 6.0 0.00 0.00 0.00 67 1014.8
20260905224302 73 57 1.0 6.0 0.00 0.00 0.00 67 1015.0
20260905224204 73 61 1.0 6.0 0.00 0.00 0.00 67 1014.9
20260905224103 73 43 1.0 9.0 0.00 0.00 0.00 67 1014.8
20260905224024 73 51 1.0 9.0 0.00 0.00 0.00 68 1014.9
20260905223924 73 48 1.0 9.0 0.00 0.00 0.00 67 1014.9
20260905223804 73 48 1.0 9.0 0.00 0.00 0.00 66 1015.0